IT9IJI-13 Weather Reports


Display with metric or nautical units.
time (UTC)temp
F
wind
direction
speed
MPH
gust
MPH
rain 1hr
in
rain 24hr
in
rain mn
in
humidity
%
barometer
mb
20260508130903 75 297 3.0 12.0 0.00 0.00 0.00 52 1012.5
20260508130803 75 296 3.0 12.0 0.00 0.00 0.00 52 1012.6
20260508130703 75 296 4.0 12.0 0.00 0.00 0.00 52 1012.5
20260508130603 75 296 4.0 12.0 0.00 0.00 0.00 51 1012.4
20260508130503 75 295 4.0 12.0 0.00 0.00 0.00 52 1012.4
20260508130403 75 294 4.0 12.0 0.00 0.00 0.00 52 1012.4
20260508130303 75 295 4.0 11.0 0.00 0.00 0.00 52 1012.4
20260508130203 75 296 4.0 11.0 0.00 0.00 0.00 52 1012.4
20260508130103 75 296 4.0 11.0 0.00 0.00 0.00 52 1012.5
20260508130003 75 295 4.0 11.0 0.00 0.00 0.00 52 1012.5
20260508125903 75 294 4.0 11.0 0.00 0.00 0.00 53 1012.4
20260508125803 75 295 4.0 9.0 0.00 0.00 0.00 53 1012.4
20260508125703 75 294 3.0 9.0 0.00 0.00 0.00 53 1012.4
20260508125603 75 295 3.0 9.0 0.00 0.00 0.00 53 1012.5
20260508125503 75 297 3.0 9.0 0.00 0.00 0.00 53 1012.4
20260508125403 75 298 3.0 9.0 0.00 0.00 0.00 53 1012.5
20260508125306 75 296 3.0 7.0 0.00 0.00 0.00 52 1012.5
20260508125203 75 296 3.0 7.0 0.00 0.00 0.00 53 1012.5
20260508125103 75 295 3.0 7.0 0.00 0.00 0.00 53 1012.4
20260508125003 75 295 3.0 7.0 0.00 0.00 0.00 53 1012.4
20260508124903 75 295 3.0 7.0 0.00 0.00 0.00 53 1012.5
20260508124803 75 294 3.0 6.0 0.00 0.00 0.00 53 1012.4
20260508124703 75 292 3.0 6.0 0.00 0.00 0.00 53 1012.4
20260508124603 75 292 3.0 6.0 0.00 0.00 0.00 54 1012.4
20260508124503 75 291 3.0 6.0 0.00 0.00 0.00 54 1012.4
20260508124403 75 289 3.0 6.0 0.00 0.00 0.00 55 1012.4
20260508124303 75 288 3.0 6.0 0.00 0.00 0.00 55 1012.5
20260508124204 75 287 2.0 6.0 0.00 0.00 0.00 55 1012.5
20260508124104 75 287 2.0 6.0 0.00 0.00 0.00 55 1012.5
20260508124004 75 285 3.0 6.0 0.00 0.00 0.00 55 1012.6
20260508123904 74 287 3.0 7.0 0.00 0.00 0.00 55 1012.5
20260508123804 74 285 3.0 7.0 0.00 0.00 0.00 55 1012.5
20260508123704 74 284 3.0 7.0 0.00 0.00 0.00 55 1012.5
20260508123604 74 286 3.0 7.0 0.00 0.00 0.00 55 1012.4
20260508123504 74 285 3.0 7.0 0.00 0.00 0.00 55 1012.4
20260508123404 74 285 3.0 7.0 0.00 0.00 0.00 55 1012.4
20260508123304 74 287 2.0 7.0 0.00 0.00 0.00 55 1012.4
20260508123204 74 288 3.0 9.0 0.00 0.00 0.00 55 1012.4
20260508123104 74 288 3.0 9.0 0.00 0.00 0.00 55 1012.5
20260508123004 74 291 3.0 9.0 0.00 0.00 0.00 55 1012.5
20260508122904 74 290 3.0 9.0 0.00 0.00 0.00 55 1012.4
20260508122804 74 292 2.0 9.0 0.00 0.00 0.00 55 1012.4
20260508122704 74 294 2.0 9.0 0.00 0.00 0.00 55 1012.4
20260508122604 74 292 2.0 9.0 0.00 0.00 0.00 55 1012.4
20260508122504 74 290 2.0 9.0 0.00 0.00 0.00 55 1012.4
20260508122404 75 289 2.0 9.0 0.00 0.00 0.00 55 1012.4
20260508122306 75 288 2.0 9.0 0.00 0.00 0.00 55 1012.3
20260508122204 75 287 2.0 8.0 0.00 0.00 0.00 54 1012.2
20260508122104 75 287 2.0 8.0 0.00 0.00 0.00 54 1012.3
20260508122004 75 283 2.0 8.0 0.00 0.00 0.00 54 1012.3
20260508121904 75 278 1.0 7.0 0.00 0.00 0.00 54 1012.4
20260508121804 75 275 1.0 7.0 0.00 0.00 0.00 54 1012.4
20260508121704 75 274 1.0 7.0 0.00 0.00 0.00 54 1012.4
20260508121604 75 282 2.0 7.0 0.00 0.00 0.00 54 1012.4
20260508121504 75 285 2.0 7.0 0.00 0.00 0.00 54 1012.3
20260508121404 75 288 2.0 7.0 0.00 0.00 0.00 53 1012.3
20260508121304 75 289 2.0 7.0 0.00 0.00 0.00 53 1012.2
20260508121204 75 291 2.0 7.0 0.00 0.00 0.00 53 1012.4
20260508121104 75 294 2.0 7.0 0.00 0.00 0.00 53 1012.4
20260508121004 75 295 2.0 6.0 0.00 0.00 0.00 53 1012.3
20260508120904 75 296 2.0 7.0 0.00 0.00 0.00 53 1012.3
20260508120804 75 294 2.0 8.0 0.00 0.00 0.00 53 1012.4
20260508120704 75 296 3.0 8.0 0.00 0.00 0.00 53 1012.4
20260508120604 75 295 2.0 8.0 0.00 0.00 0.00 53 1012.4
20260508120504 75 295 2.0 8.0 0.00 0.00 0.00 53 1012.4
20260508120404 75 294 3.0 8.0 0.00 0.00 0.00 53 1012.3
20260508120304 75 296 3.0 8.0 0.00 0.00 0.00 53 1012.3
20260508120204 75 296 4.0 8.0 0.00 0.00 0.00 53 1012.3
20260508120104 75 295 4.0 9.0 0.00 0.00 0.00 53 1012.4
20260508120004 75 296 4.0 9.0 0.00 0.00 0.00 52 1012.4
20260508115903 75 295 4.0 9.0 0.00 0.00 0.00 52 1012.4
20260508115803 75 296 4.0 9.0 0.00 0.00 0.00 52 1012.3
20260508115703 75 296 4.0 9.0 0.00 0.00 0.00 52 1012.4
20260508115603 75 297 4.0 9.0 0.00 0.00 0.00 52 1012.3
20260508115503 75 296 5.0 9.0 0.00 0.00 0.00 52 1012.4
20260508115403 75 296 5.0 9.0 0.00 0.00 0.00 52 1012.3
20260508115306 75 295 4.0 9.0 0.00 0.00 0.00 52 1012.3
20260508115203 75 294 4.0 9.0 0.00 0.00 0.00 52 1012.3
20260508115103 75 294 4.0 9.0 0.00 0.00 0.00 52 1012.2
20260508115003 76 293 3.0 8.0 0.00 0.00 0.00 52 1012.2
20260508114903 76 297 3.0 8.0 0.00 0.00 0.00 52 1012.1
20260508114803 76 297 3.0 8.0 0.00 0.00 0.00 52 1012.3
20260508114703 76 297 3.0 7.0 0.00 0.00 0.00 52 1012.3
20260508114603 76 295 3.0 7.0 0.00 0.00 0.00 53 1012.3
20260508114503 76 295 3.0 7.0 0.00 0.00 0.00 53 1012.3
20260508114403 76 295 3.0 9.0 0.00 0.00 0.00 53 1012.3
20260508114303 76 296 3.0 9.0 0.00 0.00 0.00 53 1012.4
20260508114203 76 296 3.0 9.0 0.00 0.00 0.00 54 1012.3
20260508114103 76 297 3.0 9.0 0.00 0.00 0.00 54 1012.3
20260508114003 76 298 3.0 9.0 0.00 0.00 0.00 54 1012.3
20260508113903 76 295 3.0 9.0 0.00 0.00 0.00 54 1012.3
20260508113803 76 294 2.0 9.0 0.00 0.00 0.00 54 1012.3
20260508113703 76 294 2.0 9.0 0.00 0.00 0.00 54 1012.2
20260508113603 76 295 2.0 9.0 0.00 0.00 0.00 54 1012.3
20260508113503 76 297 1.0 9.0 0.00 0.00 0.00 54 1012.3
20260508113403 76 306 1.0 4.0 0.00 0.00 0.00 55 1012.4
20260508113303 76 318 1.0 4.0 0.00 0.00 0.00 55 1012.3
20260508113203 76 97 0.0 4.0 0.00 0.00 0.00 55 1012.2
20260508113103 76 55 1.0 4.0 0.00 0.00 0.00 55 1012.2
20260508113004 76 309 1.0 4.0 0.00 0.00 0.00 55 1012.3
20260508112903 76 298 1.0 4.0 0.00 0.00 0.00 54 1012.3
20260508112803 76 295 1.0 4.0 0.00 0.00 0.00 55 1012.4
20260508112703 76 300 1.0 6.0 0.00 0.00 0.00 54 1012.4
20260508112603 75 299 2.0 7.0 0.00 0.00 0.00 54 1012.3
20260508112503 75 299 2.0 7.0 0.00 0.00 0.00 54 1012.4
20260508112403 75 297 3.0 9.0 0.00 0.00 0.00 54 1012.3
20260508112306 75 298 3.0 9.0 0.00 0.00 0.00 54 1012.4
20260508112203 75 298 3.0 9.0 0.00 0.00 0.00 53 1012.3
20260508112104 75 297 3.0 9.0 0.00 0.00 0.00 53 1012.3
20260508112003 75 297 3.0 9.0 0.00 0.00 0.00 53 1012.3
20260508111903 75 297 3.0 9.0 0.00 0.00 0.00 53 1012.3
20260508111803 76 297 3.0 9.0 0.00 0.00 0.00 53 1012.3
20260508111703 76 296 3.0 9.0 0.00 0.00 0.00 53 1012.4
20260508111603 76 296 3.0 9.0 0.00 0.00 0.00 53 1012.3
20260508111503 76 293 3.0 9.0 0.00 0.00 0.00 53 1012.3
20260508111403 76 294 3.0 8.0 0.00 0.00 0.00 53 1012.3
20260508111303 76 293 3.0 8.0 0.00 0.00 0.00 54 1012.3
20260508111203 76 293 3.0 8.0 0.00 0.00 0.00 54 1012.3
20260508111103 76 293 3.0 8.0 0.00 0.00 0.00 54 1012.2
20260508111003 76 293 3.0 8.0 0.00 0.00 0.00 54 1012.3
20260508110903 76 293 3.0 8.0 0.00 0.00 0.00 54 1012.3
20260508110803 76 293 3.0 8.0 0.00 0.00 0.00 54 1012.3
20260508110703 76 297 3.0 8.0 0.00 0.00 0.00 54 1012.2
20260508110603 75 298 3.0 8.0 0.00 0.00 0.00 54 1012.2
20260508110503 76 299 3.0 8.0 0.00 0.00 0.00 54 1012.3
20260508110403 76 299 3.0 8.0 0.00 0.00 0.00 54 1012.1
20260508110303 76 300 3.0 8.0 0.00 0.00 0.00 54 1012.2
20260508110203 76 299 3.0 8.0 0.00 0.00 0.00 54 1012.2
20260508110103 76 299 3.0 8.0 0.00 0.00 0.00 54 1012.2
20260508110003 76 299 3.0 8.0 0.00 0.00 0.00 53 1012.0
20260508105903 76 301 3.0 8.0 0.00 0.00 0.00 54 1012.0
20260508105803 76 301 2.0 8.0 0.00 0.00 0.00 54 1012.0
20260508105703 76 296 2.0 7.0 0.00 0.00 0.00 55 1012.0
20260508105603 76 293 2.0 7.0 0.00 0.00 0.00 55 1012.0
20260508105503 76 294 1.0 7.0 0.00 0.00 0.00 55 1011.9
20260508105403 76 294 2.0 7.0 0.00 0.00 0.00 55 1011.8
20260508105306 76 295 2.0 7.0 0.00 0.00 0.00 55 1012.0
20260508105203 76 296 2.0 7.0 0.00 0.00 0.00 55 1012.0
20260508105103 76 296 2.0 7.0 0.00 0.00 0.00 55 1012.0
20260508105003 76 296 2.0 7.0 0.00 0.00 0.00 55 1012.1
20260508104903 76 297 2.0 7.0 0.00 0.00 0.00 55 1012.2
20260508104803 76 297 2.0 7.0 0.00 0.00 0.00 55 1012.1
20260508104703 76 297 2.0 6.0 0.00 0.00 0.00 56 1012.1
20260508104603 76 297 2.0 6.0 0.00 0.00 0.00 56 1012.1
20260508104503 76 296 2.0 6.0 0.00 0.00 0.00 56 1012.0
20260508104403 76 297 2.0 6.0 0.00 0.00 0.00 56 1012.0
20260508104303 76 296 2.0 6.0 0.00 0.00 0.00 56 1012.0
20260508104203 76 298 2.0 6.0 0.00 0.00 0.00 56 1012.0
20260508104103 76 299 2.0 6.0 0.00 0.00 0.00 56 1012.0
20260508104003 76 300 2.0 6.0 0.00 0.00 0.00 55 1012.0
20260508103903 76 301 2.0 5.0 0.00 0.00 0.00 55 1011.9
20260508103803 76 303 2.0 5.0 0.00 0.00 0.00 56 1012.0
20260508103703 76 302 2.0 6.0 0.00 0.00 0.00 55 1012.0
20260508103603 76 302 2.0 6.0 0.00 0.00 0.00 55 1012.0
20260508103503 76 304 2.0 6.0 0.00 0.00 0.00 55 1012.0
20260508103403 76 304 2.0 6.0 0.00 0.00 0.00 55 1012.0
20260508103303 76 305 1.0 6.0 0.00 0.00 0.00 56 1012.1
20260508103203 76 302 1.0 6.0 0.00 0.00 0.00 56 1012.0
20260508103103 75 301 1.0 6.0 0.00 0.00 0.00 56 1012.0
20260508103003 75 299 1.0 6.0 0.00 0.00 0.00 56 1012.0
20260508102903 75 296 2.0 9.0 0.00 0.00 0.00 56 1012.0
20260508102804 75 295 2.0 9.0 0.00 0.00 0.00 56 1012.1
20260508102704 75 296 2.0 9.0 0.00 0.00 0.00 56 1012.0
20260508102604 75 296 2.0 9.0 0.00 0.00 0.00 56 1012.0
20260508102504 75 296 2.0 9.0 0.00 0.00 0.00 56 1012.1
20260508102404 75 296 2.0 9.0 0.00 0.00 0.00 56 1012.1
20260508102306 75 296 2.0 9.0 0.00 0.00 0.00 56 1012.2
20260508102204 75 297 2.0 9.0 0.00 0.00 0.00 56 1012.0
20260508102104 75 298 2.0 9.0 0.00 0.00 0.00 56 1012.0
20260508102004 75 297 2.0 9.0 0.00 0.00 0.00 56 1012.0
20260508101904 75 301 2.0 7.0 0.00 0.00 0.00 56 1012.1
20260508101804 75 303 2.0 8.0 0.00 0.00 0.00 57 1012.0
20260508101704 75 303 2.0 8.0 0.00 0.00 0.00 57 1012.1
20260508101604 75 302 2.0 8.0 0.00 0.00 0.00 57 1012.1
20260508101504 75 302 2.0 8.0 0.00 0.00 0.00 57 1012.1
20260508101404 75 303 2.0 8.0 0.00 0.00 0.00 57 1012.1
20260508101304 75 303 2.0 8.0 0.00 0.00 0.00 57 1012.2
20260508101204 75 303 2.0 8.0 0.00 0.00 0.00 57 1012.2
20260508101104 75 303 2.0 8.0 0.00 0.00 0.00 57 1012.3
20260508101004 75 308 2.0 8.0 0.00 0.00 0.00 57 1012.2
20260508100904 75 316 2.0 8.0 0.00 0.00 0.00 57 1012.1
20260508100804 75 10 1.0 6.0 0.00 0.00 0.00 56 1012.2
20260508100704 75 110 1.0 6.0 0.00 0.00 0.00 57 1012.0
20260508100604 75 108 1.0 6.0 0.00 0.00 0.00 57 1012.0
20260508100504 75 108 1.0 6.0 0.00 0.00 0.00 57 1012.1
20260508100404 74 114 1.0 6.0 0.00 0.00 0.00 57 1012.1
20260508100304 74 113 1.0 6.0 0.00 0.00 0.00 57 1012.1
20260508100204 74 113 1.0 6.0 0.00 0.00 0.00 58 1012.2
20260508100104 74 110 1.0 6.0 0.00 0.00 0.00 58 1012.1
20260508100004 74 114 0.0 3.0 0.00 0.00 0.00 58 1012.1
20260508095904 74 117 0.0 3.0 0.00 0.00 0.00 58 1012.2
20260508095804 74 117 0.0 3.0 0.00 0.00 0.00 58 1012.1
20260508095704 74 102 0.0 3.0 0.00 0.00 0.00 58 1012.2
20260508095604 74 90 0.0 3.0 0.00 0.00 0.00 58 1012.1
20260508095504 74 90 0.0 3.0 0.00 0.00 0.00 59 1012.1
20260508095404 74 87 0.0 2.0 0.00 0.00 0.00 59 1012.2
20260508095306 74 90 0.0 2.0 0.00 0.00 0.00 59 1012.1
20260508095204 74 87 0.0 5.0 0.00 0.00 0.00 59 1012.1
20260508095104 74 85 0.0 5.0 0.00 0.00 0.00 60 1012.1
20260508095004 74 356 0.0 5.0 0.00 0.00 0.00 60 1012.1
20260508094904 74 356 0.0 5.0 0.00 0.00 0.00 60 1012.1
20260508094804 73 5 0.0 5.0 0.00 0.00 0.00 60 1012.1
20260508094704 73 73 1.0 6.0 0.00 0.00 0.00 60 1012.0
20260508094604 73 76 1.0 6.0 0.00 0.00 0.00 60 1012.0
20260508094504 73 115 1.0 6.0 0.00 0.00 0.00 61 1012.0
20260508094404 73 120 1.0 6.0 0.00 0.00 0.00 61 1012.0
20260508094304 73 113 1.0 6.0 0.00 0.00 0.00 61 1012.0
20260508094203 73 128 1.0 6.0 0.00 0.00 0.00 61 1012.0
20260508094103 73 126 1.0 6.0 0.00 0.00 0.00 61 1012.0
20260508094004 73 122 1.0 6.0 0.00 0.00 0.00 61 1011.9
20260508093903 73 123 1.0 6.0 0.00 0.00 0.00 61 1011.9
20260508093803 73 121 1.0 6.0 0.00 0.00 0.00 61 1011.9
20260508093703 73 128 1.0 6.0 0.00 0.00 0.00 61 1011.8
20260508093603 74 128 1.0 6.0 0.00 0.00 0.00 61 1011.8
20260508093503 74 127 1.0 6.0 0.00 0.00 0.00 61 1011.8
20260508093403 74 127 1.0 6.0 0.00 0.00 0.00 61 1011.8
20260508093303 74 132 0.0 4.0 0.00 0.00 0.00 61 1011.8
20260508093203 74 122 0.0 4.0 0.00 0.00 0.00 61 1011.9
20260508093103 74 110 0.0 4.0 0.00 0.00 0.00 62 1011.8
20260508093003 74 109 1.0 4.0 0.00 0.00 0.00 62 1011.8
20260508092903 74 106 1.0 4.0 0.00 0.00 0.00 61 1011.8
20260508092803 74 114 1.0 4.0 0.00 0.00 0.00 62 1011.8
20260508092703 74 113 1.0 4.0 0.00 0.00 0.00 62 1011.7
20260508092603 74 113 1.0 4.0 0.00 0.00 0.00 62 1011.8
20260508092503 74 108 0.0 4.0 0.00 0.00 0.00 62 1011.7
20260508092403 74 108 0.0 4.0 0.00 0.00 0.00 62 1011.8
20260508092312 74 108 0.0 4.0 0.00 0.00 0.00 62 1011.8
20260508092203 74 108 0.0 4.0 0.00 0.00 0.00 61 1011.8
20260508092103 74 117 0.0 4.0 0.00 0.00 0.00 61 1011.8
20260508092003 74 181 0.0 2.0 0.00 0.00 0.00 61 1011.8
20260508091903 74 203 0.0 2.0 0.00 0.00 0.00 61 1011.7
20260508091803 74 235 0.0 2.0 0.00 0.00 0.00 61 1011.7
20260508091703 74 263 0.0 2.0 0.00 0.00 0.00 61 1011.8
20260508091603 74 299 0.0 2.0 0.00 0.00 0.00 61 1011.7
20260508091503 74 299 0.0 2.0 0.00 0.00 0.00 61 1011.8
20260508091403 74 45 0.0 3.0 0.00 0.00 0.00 61 1011.9
20260508091303 74 45 0.0 3.0 0.00 0.00 0.00 61 1011.8
20260508091203 74 102 0.0 3.0 0.00 0.00 0.00 61 1011.8
20260508091103 74 99 0.0 3.0 0.00 0.00 0.00 61 1011.8
20260508091003 74 104 1.0 5.0 0.00 0.00 0.00 60 1011.8
20260508090903 74 104 1.0 5.0 0.00 0.00 0.00 60 1011.9
20260508090803 74 106 1.0 5.0 0.00 0.00 0.00 60 1011.9
20260508090703 74 109 1.0 5.0 0.00 0.00 0.00 60 1011.7
20260508090603 74 110 1.0 5.0 0.00 0.00 0.00 60 1011.7
20260508090503 74 110 1.0 5.0 0.00 0.00 0.00 60 1011.7
20260508090403 74 112 1.0 5.0 0.00 0.00 0.00 60 1011.8
20260508090303 74 112 1.0 5.0 0.00 0.00 0.00 60 1011.7
20260508090203 74 115 0.0 5.0 0.00 0.00 0.00 60 1011.9
20260508090103 74 122 0.0 5.0 0.00 0.00 0.00 60 1011.9
20260508090003 74 118 0.0 3.0 0.00 0.00 0.00 61 1011.8
20260508085903 74 116 0.0 3.0 0.00 0.00 0.00 61 1011.9
20260508085803 74 105 0.0 3.0 0.00 0.00 0.00 61 1011.9
20260508085703 74 105 0.0 3.0 0.00 0.00 0.00 61 1011.8
20260508085603 74 64 0.0 3.0 0.00 0.00 0.00 61 1011.8
20260508085503 74 283 1.0 4.0 0.00 0.00 0.00 61 1011.9
20260508085403 74 279 1.0 4.0 0.00 0.00 0.00 62 1011.9
20260508085306 74 281 1.0 4.0 0.00 0.00 0.00 62 1011.9
20260508085203 74 154 1.0 4.0 0.00 0.00 0.00 62 1011.9
20260508085103 74 118 1.0 4.0 0.00 0.00 0.00 62 1011.8
20260508085003 74 123 1.0 4.0 0.00 0.00 0.00 62 1011.9
20260508084903 74 132 1.0 4.0 0.00 0.00 0.00 62 1011.9
20260508084803 74 140 1.0 4.0 0.00 0.00 0.00 62 1011.8
20260508084703 74 140 1.0 4.0 0.00 0.00 0.00 62 1011.8
20260508084603 74 125 1.0 4.0 0.00 0.00 0.00 62 1011.8
20260508084503 74 113 0.0 3.0 0.00 0.00 0.00 62 1011.9
20260508084403 74 112 1.0 3.0 0.00 0.00 0.00 62 1011.9
20260508084303 74 112 0.0 3.0 0.00 0.00 0.00 62 1011.8
20260508084203 75 113 0.0 3.0 0.00 0.00 0.00 62 1011.9
20260508084103 75 115 0.0 3.0 0.00 0.00 0.00 62 1011.9
20260508084003 75 290 0.0 3.0 0.00 0.00 0.00 62 1011.8
20260508083903 75 291 1.0 4.0 0.00 0.00 0.00 62 1011.8
20260508083803 75 290 1.0 4.0 0.00 0.00 0.00 62 1011.8
20260508083703 75 290 1.0 4.0 0.00 0.00 0.00 62 1011.8
20260508083603 75 290 1.0 4.0 0.00 0.00 0.00 62 1011.8
20260508083503 75 290 1.0 4.0 0.00 0.00 0.00 62 1011.9
20260508083403 75 290 1.0 4.0 0.00 0.00 0.00 62 1011.8
20260508083303 75 290 1.0 4.0 0.00 0.00 0.00 62 1011.9
20260508083203 75 290 1.0 4.0 0.00 0.00 0.00 62 1011.9
20260508083103 75 289 1.0 4.0 0.00 0.00 0.00 62 1011.8
20260508083003 75 288 1.0 4.0 0.00 0.00 0.00 62 1011.8
20260508082903 75 284 0.0 3.0 0.00 0.00 0.00 62 1011.8
20260508082803 75 130 0.0 2.0 0.00 0.00 0.00 62 1011.8
20260508082703 75 126 0.0 2.0 0.00 0.00 0.00 61 1011.9
20260508082603 75 123 0.0 2.0 0.00 0.00 0.00 61 1011.9
20260508082503 76 121 0.0 2.0 0.00 0.00 0.00 61 1011.8
20260508082403 76 121 0.0 2.0 0.00 0.00 0.00 61 1011.9
20260508082306 76 115 0.0 2.0 0.00 0.00 0.00 61 1011.8
20260508082203 76 111 0.0 2.0 0.00 0.00 0.00 61 1011.9
20260508082103 76 108 0.0 2.0 0.00 0.00 0.00 62 1011.8
20260508082003 76 112 0.0 2.0 0.00 0.00 0.00 62 1011.9
20260508081903 76 112 0.0 2.0 0.00 0.00 0.00 62 1011.8
20260508081803 76 96 0.0 2.0 0.00 0.00 0.00 62 1011.8
20260508081703 76 96 0.0 2.0 0.00 0.00 0.00 63 1011.8
20260508081603 76 67 0.0 1.0 0.00 0.00 0.00 63 1011.8
20260508081503 76 67 0.0 1.0 0.00 0.00 0.00 63 1011.7
20260508081403 76 67 0.0 1.0 0.00 0.00 0.00 63 1011.7
20260508081303 76 103 0.0 3.0 0.00 0.00 0.00 64 1011.8
20260508081203 76 103 0.0 3.0 0.00 0.00 0.00 64 1011.8
20260508081103 75 103 0.0 3.0 0.00 0.00 0.00 64 1011.8
20260508081003 75 103 0.0 3.0 0.00 0.00 0.00 64 1011.7
20260508080903 75 103 0.0 3.0 0.00 0.00 0.00 64 1011.7
20260508080803 75 103 0.0 3.0 0.00 0.00 0.00 64 1011.7
20260508080703 75 103 0.0 3.0 0.00 0.00 0.00 64 1011.7
20260508080604 75 99 0.0 3.0 0.00 0.00 0.00 64 1011.7
20260508080504 75 99 0.0 3.0 0.00 0.00 0.00 64 1011.7
20260508080404 75 99 0.0 3.0 0.00 0.00 0.00 64 1011.6
20260508080304 75 67 0.0 1.0 0.00 0.00 0.00 65 1011.7
20260508080204 75 84 0.0 1.0 0.00 0.00 0.00 65 1011.7
20260508080104 75 84 0.0 1.0 0.00 0.00 0.00 65 1011.7
20260508080004 75 84 0.0 1.0 0.00 0.00 0.00 65 1011.7
20260508075904 75 84 0.0 1.0 0.00 0.00 0.00 65 1011.7
20260508075804 75 84 0.0 1.0 0.00 0.00 0.00 65 1011.7
20260508075704 75 84 0.0 1.0 0.00 0.00 0.00 66 1011.7
20260508075604 75 112 0.0 2.0 0.00 0.00 0.00 66 1011.7
20260508075504 75 112 0.0 2.0 0.00 0.00 0.00 66 1011.7
20260508075404 74 112 0.0 2.0 0.00 0.00 0.00 66 1011.7
20260508075308 74 99 0.0 4.0 0.00 0.00 0.00 66 1011.7
20260508075204 74 99 0.0 4.0 0.00 0.00 0.00 67 1011.8
20260508075104 74 98 0.0 4.0 0.00 0.00 0.00 67 1011.7
20260508075004 74 98 0.0 4.0 0.00 0.00 0.00 67 1011.6
20260508074904 74 98 0.0 4.0 0.00 0.00 0.00 68 1011.7
20260508074804 73 98 0.0 4.0 0.00 0.00 0.00 68 1011.7
20260508074704 73 98 1.0 4.0 0.00 0.00 0.00 68 1011.8
20260508074604 73 98 1.0 4.0 0.00 0.00 0.00 68 1011.7
20260508074504 73 100 1.0 4.0 0.00 0.00 0.00 68 1011.8
20260508074404 73 101 1.0 4.0 0.00 0.00 0.00 69 1011.8
20260508074304 73 103 1.0 4.0 0.00 0.00 0.00 69 1011.8
20260508074204 73 103 1.0 4.0 0.00 0.00 0.00 69 1011.8
20260508074104 72 105 0.0 4.0 0.00 0.00 0.00 69 1011.7
20260508074004 72 105 0.0 4.0 0.00 0.00 0.00 69 1011.7
20260508073904 72 106 1.0 4.0 0.00 0.00 0.00 69 1011.8
20260508073804 72 106 1.0 4.0 0.00 0.00 0.00 70 1011.8
20260508073704 72 108 0.0 3.0 0.00 0.00 0.00 70 1011.7
20260508073604 71 109 0.0 3.0 0.00 0.00 0.00 70 1011.7
20260508073504 71 111 0.0 4.0 0.00 0.00 0.00 70 1011.7
20260508073404 71 112 0.0 4.0 0.00 0.00 0.00 70 1011.6
20260508073304 71 113 0.0 4.0 0.00 0.00 0.00 70 1011.8
20260508073204 71 109 1.0 4.0 0.00 0.00 0.00 70 1011.7
20260508073104 71 108 1.0 4.0 0.00 0.00 0.00 70 1011.7
20260508073004 71 109 1.0 4.0 0.00 0.00 0.00 70 1011.7
20260508072904 71 109 1.0 4.0 0.00 0.00 0.00 70 1011.7
20260508072804 71 109 1.0 4.0 0.00 0.00 0.00 70 1011.7
20260508072704 71 110 2.0 6.0 0.00 0.00 0.00 70 1011.8
20260508072604 71 108 2.0 6.0 0.00 0.00 0.00 70 1011.7
20260508072504 71 108 2.0 6.0 0.00 0.00 0.00 70 1011.7
20260508072403 71 108 2.0 6.0 0.00 0.00 0.00 70 1011.7
20260508072307 71 108 3.0 6.0 0.00 0.00 0.00 70 1011.8
20260508072204 71 108 3.0 6.0 0.00 0.00 0.00 70 1011.9
20260508072103 71 108 3.0 6.0 0.00 0.00 0.00 70 1011.7
20260508072004 71 108 2.0 6.0 0.00 0.00 0.00 70 1011.7
20260508071903 71 107 2.0 6.0 0.00 0.00 0.00 70 1011.6
20260508071803 71 108 2.0 6.0 0.00 0.00 0.00 70 1011.9
20260508071703 71 108 2.0 6.0 0.00 0.00 0.00 69 1011.8
20260508071603 71 109 2.0 6.0 0.00 0.00 0.00 69 1011.7
20260508071503 71 110 2.0 6.0 0.00 0.00 0.00 69 1011.7
20260508071403 71 110 1.0 6.0 0.00 0.00 0.00 69 1011.7
20260508071303 71 112 1.0 5.0 0.00 0.00 0.00 69 1011.6
20260508071203 71 113 1.0 5.0 0.00 0.00 0.00 69 1011.7
20260508071103 71 117 1.0 5.0 0.00 0.00 0.00 69 1011.7
20260508071003 71 117 1.0 5.0 0.00 0.00 0.00 69 1011.8
20260508070903 71 117 1.0 5.0 0.00 0.00 0.00 69 1011.8
20260508070803 71 117 1.0 5.0 0.00 0.00 0.00 69 1011.8
20260508070703 71 117 0.0 4.0 0.00 0.00 0.00 69 1011.8
20260508070603 72 120 0.0 3.0 0.00 0.00 0.00 69 1011.8
20260508070503 71 112 0.0 2.0 0.00 0.00 0.00 70 1011.8
20260508070403 71 112 0.0 3.0 0.00 0.00 0.00 70 1011.8
20260508070303 71 112 0.0 3.0 0.00 0.00 0.00 70 1011.8
20260508070203 71 112 0.0 3.0 0.00 0.00 0.00 69 1011.8
20260508070004 71 112 0.0 3.0 0.00 0.00 0.00 69 1011.8
20260508065903 71 112 0.0 3.0 0.00 0.00 0.00 69 1011.9
20260508065803 71 112 0.0 3.0 0.00 0.00 0.00 69 1011.8
20260508065703 71 112 0.0 3.0 0.00 0.00 0.00 69 1011.8
20260508065603 72 112 0.0 3.0 0.00 0.00 0.00 69 1011.8
20260508065503 72 112 0.0 3.0 0.00 0.00 0.00 69 1011.8
20260508065403 72 112 0.0 3.0 0.00 0.00 0.00 69 1011.8
20260508065306 72 112 0.0 3.0 0.00 0.00 0.00 69 1011.8
20260508065203 72 112 0.0 2.0 0.00 0.00 0.00 69 1011.8
20260508065103 72 112 0.0 2.0 0.00 0.00 0.00 69 1011.9
20260508065003 72 112 0.0 2.0 0.00 0.00 0.00 68 1011.7
20260508064903 72 112 0.0 2.0 0.00 0.00 0.00 68 1011.7
20260508064803 72 112 0.0 2.0 0.00 0.00 0.00 69 1011.7
20260508064703 72 112 0.0 2.0 0.00 0.00 0.00 68 1011.7
20260508064603 72 109 0.0 4.0 0.00 0.00 0.00 69 1011.7
20260508064503 72 111 1.0 4.0 0.00 0.00 0.00 68 1011.7
20260508064403 72 110 0.0 4.0 0.00 0.00 0.00 68 1011.7
20260508064303 72 111 1.0 4.0 0.00 0.00 0.00 68 1011.7
20260508064203 72 110 1.0 4.0 0.00 0.00 0.00 68 1011.7
20260508064103 72 110 1.0 4.0 0.00 0.00 0.00 68 1011.7
20260508064003 73 110 1.0 4.0 0.00 0.00 0.00 68 1011.7
20260508063903 73 111 1.0 4.0 0.00 0.00 0.00 68 1011.7
20260508063803 73 111 1.0 4.0 0.00 0.00 0.00 68 1011.7
20260508063703 73 111 1.0 4.0 0.00 0.00 0.00 68 1011.7
20260508063603 73 112 1.0 3.0 0.00 0.00 0.00 68 1011.7
20260508063503 73 112 1.0 3.0 0.00 0.00 0.00 68 1011.7
20260508063403 73 112 1.0 3.0 0.00 0.00 0.00 68 1011.7
20260508063303 73 112 1.0 3.0 0.00 0.00 0.00 68 1011.7
20260508063203 73 113 0.0 3.0 0.00 0.00 0.00 68 1011.7
20260508063103 73 114 0.0 3.0 0.00 0.00 0.00 68 1011.6
20260508063003 73 114 1.0 3.0 0.00 0.00 0.00 69 1011.7
20260508062903 73 113 0.0 3.0 0.00 0.00 0.00 69 1011.7
20260508062803 73 112 1.0 3.0 0.00 0.00 0.00 69 1011.6
20260508062703 73 112 1.0 5.0 0.00 0.00 0.00 69 1011.6
20260508062603 73 112 1.0 5.0 0.00 0.00 0.00 69 1011.6
20260508062503 73 112 1.0 5.0 0.00 0.00 0.00 69 1011.6
20260508062403 73 112 1.0 5.0 0.00 0.00 0.00 69 1011.6
20260508062306 73 112 1.0 5.0 0.00 0.00 0.00 69 1011.6
20260508062203 73 112 1.0 5.0 0.00 0.00 0.00 69 1011.6
20260508062103 73 112 1.0 5.0 0.00 0.00 0.00 69 1011.5
20260508062003 73 112 1.0 5.0 0.00 0.00 0.00 69 1011.5
20260508061903 73 112 1.0 5.0 0.00 0.00 0.00 69 1011.5
20260508061803 73 112 1.0 5.0 0.00 0.00 0.00 70 1011.5
20260508061703 73 112 1.0 4.0 0.00 0.00 0.00 70 1011.5
20260508061603 73 113 1.0 4.0 0.00 0.00 0.00 70 1011.5
20260508061503 73 113 1.0 4.0 0.00 0.00 0.00 70 1011.5
20260508061403 73 113 0.0 4.0 0.00 0.00 0.00 71 1011.5
20260508061303 73 113 0.0 4.0 0.00 0.00 0.00 71 1011.6
20260508061203 72 112 0.0 4.0 0.00 0.00 0.00 72 1011.6
20260508061103 72 112 0.0 4.0 0.00 0.00 0.00 72 1011.6
20260508061003 72 112 1.0 4.0 0.00 0.00 0.00 72 1011.6
20260508060903 72 112 1.0 4.0 0.00 0.00 0.00 72 1011.5
20260508060803 71 112 0.0 4.0 0.00 0.00 0.00 72 1011.4
20260508060703 71 112 1.0 4.0 0.00 0.00 0.00 72 1011.5
20260508060603 71 112 1.0 4.0 0.00 0.00 0.00 72 1011.5
20260508060503 71 112 1.0 4.0 0.00 0.00 0.00 72 1011.6
20260508060403 71 112 1.0 4.0 0.00 0.00 0.00 72 1011.6
20260508060303 71 114 1.0 4.0 0.00 0.00 0.00 72 1011.6
20260508060203 71 114 1.0 4.0 0.00 0.00 0.00 72 1011.6
20260508060003 71 115 0.0 4.0 0.00 0.00 0.00 72 1011.5
20260508055903 71 116 0.0 3.0 0.00 0.00 0.00 72 1011.4
20260508055803 71 117 0.0 3.0 0.00 0.00 0.00 72 1011.4
20260508055703 71 119 0.0 3.0 0.00 0.00 0.00 72 1011.4
20260508055603 71 123 0.0 3.0 0.00 0.00 0.00 73 1011.5
20260508055503 71 122 0.0 3.0 0.00 0.00 0.00 73 1011.5
20260508055403 70 113 0.0 3.0 0.00 0.00 0.00 73 1011.5
20260508055306 70 108 0.0 3.0 0.00 0.00 0.00 73 1011.5
20260508055203 70 108 0.0 3.0 0.00 0.00 0.00 73 1011.6
20260508055103 70 109 0.0 3.0 0.00 0.00 0.00 73 1011.5
20260508055003 70 109 0.0 3.0 0.00 0.00 0.00 72 1011.5
20260508054903 70 108 0.0 3.0 0.00 0.00 0.00 72 1011.5
20260508054804 70 108 0.0 3.0 0.00 0.00 0.00 72 1011.5
20260508054704 70 108 0.0 3.0 0.00 0.00 0.00 72 1011.4
20260508054604 70 108 0.0 3.0 0.00 0.00 0.00 72 1011.5
20260508054504 70 108 0.0 3.0 0.00 0.00 0.00 72 1011.3
20260508054404 70 112 0.0 3.0 0.00 0.00 0.00 72 1011.4
20260508054304 71 112 0.0 2.0 0.00 0.00 0.00 72 1011.3
20260508054204 70 112 0.0 1.0 0.00 0.00 0.00 72 1011.3
20260508054104 71 112 0.0 1.0 0.00 0.00 0.00 72 1011.3
20260508054004 71 112 0.0 1.0 0.00 0.00 0.00 73 1011.4
20260508053904 71 112 0.0 1.0 0.00 0.00 0.00 73 1011.4
20260508053804 71 112 0.0 1.0 0.00 0.00 0.00 73 1011.4
20260508053704 71 112 0.0 1.0 0.00 0.00 0.00 73 1011.4
20260508053604 71 112 0.0 1.0 0.00 0.00 0.00 73 1011.4
20260508053504 70 112 0.0 1.0 0.00 0.00 0.00 74 1011.4
20260508053404 70 112 0.0 1.0 0.00 0.00 0.00 74 1011.3
20260508053304 70 112 0.0 1.0 0.00 0.00 0.00 74 1011.3
20260508053204 70 112 0.0 1.0 0.00 0.00 0.00 75 1011.3
20260508053104 70 108 0.0 1.0 0.00 0.00 0.00 75 1011.2
20260508053004 70 106 0.0 1.0 0.00 0.00 0.00 76 1011.2
20260508052904 70 106 0.0 1.0 0.00 0.00 0.00 76 1011.2
20260508052804 70 106 0.0 1.0 0.00 0.00 0.00 77 1011.1
20260508052704 70 106 0.0 1.0 0.00 0.00 0.00 77 1011.1
20260508052604 69 106 0.0 1.0 0.00 0.00 0.00 77 1011.0
20260508052504 69 106 0.0 1.0 0.00 0.00 0.00 77 1011.1
20260508052404 69 106 0.0 1.0 0.00 0.00 0.00 77 1011.1
20260508052306 69 90 0.0 1.0 0.00 0.00 0.00 78 1011.0
20260508052204 69 90 0.0 1.0 0.00 0.00 0.00 79 1011.0
20260508052104 68 0 0.0 0.0 0.00 0.00 0.00 79 1011.1
20260508052004 68 0 0.0 0.0 0.00 0.00 0.00 79 1011.1
20260508051904 68 0 0.0 0.0 0.00 0.00 0.00 79 1011.0
20260508051804 68 0 0.0 0.0 0.00 0.00 0.00 79 1011.0
20260508051704 67 0 0.0 0.0 0.00 0.00 0.00 79 1011.0
20260508051604 67 0 0.0 0.0 0.00 0.00 0.00 79 1011.0
20260508051504 67 0 0.0 0.0 0.00 0.00 0.00 79 1011.1
20260508051404 67 0 0.0 0.0 0.00 0.00 0.00 79 1011.0
20260508051304 67 0 0.0 0.0 0.00 0.00 0.00 79 1011.0
20260508051204 67 0 0.0 0.0 0.00 0.00 0.00 79 1011.0
20260508051104 67 0 0.0 0.0 0.00 0.00 0.00 79 1011.0
20260508051004 67 0 0.0 0.0 0.00 0.00 0.00 79 1011.0
20260508050904 67 0 0.0 0.0 0.00 0.00 0.00 79 1011.0
20260508050804 67 0 0.0 0.0 0.00 0.00 0.00 80 1010.9
20260508050704 67 0 0.0 0.0 0.00 0.00 0.00 80 1011.0
20260508050603 67 0 0.0 0.0 0.00 0.00 0.00 80 1011.0
20260508050503 67 0 0.0 0.0 0.00 0.00 0.00 80 1011.0
20260508050403 67 0 0.0 0.0 0.00 0.00 0.00 80 1011.0
20260508050303 67 0 0.0 0.0 0.00 0.00 0.00 80 1010.9
20260508050203 67 0 0.0 0.0 0.00 0.00 0.00 80 1010.9
20260508050103 67 0 0.0 0.0 0.00 0.00 0.00 80 1010.9
20260508050004 67 0 0.0 0.0 0.00 0.00 0.00 80 1010.9
20260508045903 67 0 0.0 0.0 0.00 0.00 0.00 80 1011.0
20260508045803 67 0 0.0 0.0 0.00 0.00 0.00 80 1010.8
20260508045703 67 0 0.0 0.0 0.00 0.00 0.00 80 1010.9
20260508045603 67 0 0.0 0.0 0.00 0.00 0.00 80 1010.9
20260508045503 66 0 0.0 0.0 0.00 0.00 0.00 80 1010.9
20260508045403 66 0 0.0 0.0 0.00 0.00 0.00 80 1010.9
20260508045306 66 0 0.0 0.0 0.00 0.00 0.00 80 1010.9
20260508045203 66 0 0.0 0.0 0.00 0.00 0.00 80 1010.9
20260508045103 66 0 0.0 0.0 0.00 0.00 0.00 80 1010.8
20260508045003 66 0 0.0 0.0 0.00 0.00 0.00 80 1010.8
20260508044903 66 0 0.0 0.0 0.00 0.00 0.00 80 1010.7
20260508044803 66 0 0.0 0.0 0.00 0.00 0.00 80 1010.7
20260508044703 66 0 0.0 0.0 0.00 0.00 0.00 80 1010.7
20260508044603 66 0 0.0 0.0 0.00 0.00 0.00 80 1010.7
20260508044504 66 0 0.0 0.0 0.00 0.00 0.00 81 1010.7
20260508044403 66 0 0.0 0.0 0.00 0.00 0.00 80 1010.8
20260508044303 66 0 0.0 0.0 0.00 0.00 0.00 81 1010.8
20260508044203 66 0 0.0 0.0 0.00 0.00 0.00 81 1010.6
20260508044103 65 0 0.0 0.0 0.00 0.00 0.00 81 1010.6
20260508044003 65 0 0.0 0.0 0.00 0.00 0.00 80 1010.6
20260508043903 65 0 0.0 0.0 0.00 0.00 0.00 81 1010.7
20260508043803 65 0 0.0 0.0 0.00 0.00 0.00 81 1010.7
20260508043703 65 0 0.0 0.0 0.00 0.00 0.00 81 1010.6
20260508043603 65 0 0.0 0.0 0.00 0.00 0.00 81 1010.7
20260508043503 65 0 0.0 0.0 0.00 0.00 0.00 81 1010.6
20260508043403 65 0 0.0 0.0 0.00 0.00 0.00 81 1010.6
20260508043303 65 0 0.0 0.0 0.00 0.00 0.00 81 1010.6
20260508043203 65 0 0.0 0.0 0.00 0.00 0.00 81 1010.6
20260508043103 65 0 0.0 0.0 0.00 0.00 0.00 81 1010.6
20260508043003 65 0 0.0 0.0 0.00 0.00 0.00 81 1010.6
20260508042903 65 0 0.0 0.0 0.00 0.00 0.00 81 1010.6
20260508042803 65 0 0.0 0.0 0.00 0.00 0.00 81 1010.5
20260508042703 65 0 0.0 0.0 0.00 0.00 0.00 81 1010.6
20260508042603 65 0 0.0 0.0 0.00 0.00 0.00 81 1010.5
20260508042503 65 0 0.0 0.0 0.00 0.00 0.00 81 1010.5
20260508042403 65 0 0.0 0.0 0.00 0.00 0.00 81 1010.5
20260508042306 65 0 0.0 0.0 0.00 0.00 0.00 81 1010.5
20260508042203 65 0 0.0 0.0 0.00 0.00 0.00 81 1010.4
20260508042103 65 0 0.0 0.0 0.00 0.00 0.00 81 1010.3
20260508042003 65 0 0.0 0.0 0.00 0.00 0.00 81 1010.3
20260508041903 65 0 0.0 0.0 0.00 0.00 0.00 81 1010.3
20260508041803 65 0 0.0 0.0 0.00 0.00 0.00 81 1010.2
20260508041703 65 0 0.0 0.0 0.00 0.00 0.00 81 1010.2
20260508041603 65 0 0.0 0.0 0.00 0.00 0.00 81 1010.3
20260508041504 65 0 0.0 0.0 0.00 0.00 0.00 81 1010.3
20260508041403 65 0 0.0 0.0 0.00 0.00 0.00 81 1010.3
20260508041303 65 0 0.0 0.0 0.00 0.00 0.00 81 1010.3
20260508041203 65 0 0.0 0.0 0.00 0.00 0.00 81 1010.3
20260508041103 65 0 0.0 0.0 0.00 0.00 0.00 81 1010.2
20260508041003 65 0 0.0 0.0 0.00 0.00 0.00 81 1010.2
20260508040903 65 0 0.0 0.0 0.00 0.00 0.00 81 1010.3
20260508040803 65 0 0.0 0.0 0.00 0.00 0.00 81 1010.2
20260508040703 65 0 0.0 0.0 0.00 0.00 0.00 81 1010.1
20260508040603 65 0 0.0 0.0 0.00 0.00 0.00 81 1010.2
20260508040503 65 0 0.0 0.0 0.00 0.00 0.00 81 1010.1
20260508040403 65 0 0.0 0.0 0.00 0.00 0.00 81 1010.2
20260508040303 65 0 0.0 0.0 0.00 0.00 0.00 81 1010.0
20260508040203 65 0 0.0 0.0 0.00 0.00 0.00 81 1010.1
20260508040003 65 0 0.0 0.0 0.00 0.00 0.00 81 1010.2
20260508035903 65 0 0.0 0.0 0.00 0.00 0.00 81 1010.1
20260508035803 65 0 0.0 0.0 0.00 0.00 0.00 81 1010.0
20260508035703 65 0 0.0 0.0 0.00 0.00 0.00 81 1010.1
20260508035603 65 0 0.0 0.0 0.00 0.00 0.00 81 1010.1
20260508035503 65 0 0.0 0.0 0.00 0.00 0.00 81 1010.2
20260508035403 65 0 0.0 0.0 0.00 0.00 0.00 81 1010.1
20260508035306 65 0 0.0 0.0 0.00 0.00 0.00 81 1010.2
20260508035203 65 0 0.0 0.0 0.00 0.00 0.00 81 1010.2
20260508035103 65 0 0.0 0.0 0.00 0.00 0.00 81 1010.2
20260508035003 65 0 0.0 0.0 0.00 0.00 0.00 81 1010.3
20260508034903 65 0 0.0 0.0 0.00 0.00 0.00 81 1010.3
20260508034803 65 112 0.0 1.0 0.00 0.00 0.00 81 1010.2
20260508034703 65 112 0.0 1.0 0.00 0.00 0.00 81 1010.2
20260508034603 65 112 0.0 1.0 0.00 0.00 0.00 81 1010.2
20260508034503 65 112 0.0 1.0 0.00 0.00 0.00 81 1010.1
20260508034403 65 112 0.0 1.0 0.00 0.00 0.00 81 1010.0
20260508034303 65 112 0.0 1.0 0.00 0.00 0.00 81 1010.0
20260508034203 65 112 0.0 1.0 0.00 0.00 0.00 81 1010.0
20260508034103 65 112 0.0 1.0 0.00 0.00 0.00 81 1010.0
20260508034003 65 112 0.0 1.0 0.00 0.00 0.00 81 1009.8
20260508033903 65 112 0.0 2.0 0.00 0.00 0.00 81 1009.8
20260508033803 65 112 0.0 2.0 0.00 0.00 0.00 81 1009.8
20260508033703 65 112 0.0 2.0 0.00 0.00 0.00 80 1009.8
20260508033603 65 112 0.0 2.0 0.00 0.00 0.00 80 1009.8
20260508033503 65 112 0.0 2.0 0.00 0.00 0.00 80 1009.8
20260508033403 65 112 0.0 2.0 0.00 0.00 0.00 80 1009.8
20260508033303 65 112 0.0 2.0 0.00 0.00 0.00 80 1009.8
20260508033203 65 112 0.0 2.0 0.00 0.00 0.00 80 1009.9
20260508033103 65 112 0.0 2.0 0.00 0.00 0.00 80 1009.8
20260508033003 65 112 0.0 2.0 0.00 0.00 0.00 80 1009.8
20260508032903 65 0 0.0 0.0 0.00 0.00 0.00 80 1009.8
20260508032803 65 0 0.0 0.0 0.00 0.00 0.00 80 1009.8
20260508032703 65 0 0.0 0.0 0.00 0.00 0.00 80 1009.7
20260508032603 65 0 0.0 0.0 0.00 0.00 0.00 80 1009.6
20260508032503 65 0 0.0 0.0 0.00 0.00 0.00 80 1009.5
20260508032403 65 0 0.0 0.0 0.00 0.00 0.00 80 1009.5
20260508032306 65 0 0.0 0.0 0.00 0.00 0.00 80 1009.6
20260508032203 65 0 0.0 0.0 0.00 0.00 0.00 80 1009.6
20260508032104 65 0 0.0 0.0 0.00 0.00 0.00 80 1009.6
20260508032004 65 0 0.0 0.0 0.00 0.00 0.00 80 1009.6
20260508031904 65 0 0.0 0.0 0.00 0.00 0.00 80 1009.6
20260508031804 65 0 0.0 0.0 0.00 0.00 0.00 80 1009.6
20260508031704 65 0 0.0 0.0 0.00 0.00 0.00 80 1009.6
20260508031604 65 0 0.0 0.0 0.00 0.00 0.00 80 1009.6
20260508031504 65 0 0.0 0.0 0.00 0.00 0.00 80 1009.5
20260508031404 65 0 0.0 0.0 0.00 0.00 0.00 80 1009.6
20260508031304 65 0 0.0 0.0 0.00 0.00 0.00 80 1009.6
20260508031204 65 0 0.0 0.0 0.00 0.00 0.00 80 1009.5
20260508031104 65 0 0.0 0.0 0.00 0.00 0.00 80 1009.5
20260508031004 65 0 0.0 0.0 0.00 0.00 0.00 80 1009.5
20260508030904 65 0 0.0 0.0 0.00 0.00 0.00 80 1009.5
20260508030804 65 0 0.0 0.0 0.00 0.00 0.00 80 1009.4
20260508030704 65 0 0.0 0.0 0.00 0.00 0.00 80 1009.4
20260508030604 65 0 0.0 0.0 0.00 0.00 0.00 80 1009.5
20260508030504 65 0 0.0 0.0 0.00 0.00 0.00 80 1009.4
20260508030404 65 0 0.0 0.0 0.00 0.00 0.00 80 1009.5
20260508030304 65 0 0.0 0.0 0.00 0.00 0.00 80 1009.5
20260508030204 65 0 0.0 0.0 0.00 0.00 0.00 80 1009.5
20260508030104 65 0 0.0 0.0 0.00 0.00 0.00 80 1009.5
20260508030004 65 0 0.0 0.0 0.00 0.00 0.00 80 1009.5
20260508025904 65 0 0.0 0.0 0.00 0.00 0.00 80 1009.5
20260508025804 65 0 0.0 0.0 0.00 0.00 0.00 80 1009.3
20260508025704 65 0 0.0 0.0 0.00 0.00 0.00 80 1009.3
20260508025604 65 0 0.0 0.0 0.00 0.00 0.00 80 1009.3
20260508025504 65 0 0.0 0.0 0.00 0.00 0.00 80 1009.3
20260508025404 65 0 0.0 0.0 0.00 0.00 0.00 80 1009.3
20260508025306 65 0 0.0 0.0 0.00 0.00 0.00 80 1009.3
20260508025204 65 0 0.0 0.0 0.00 0.00 0.00 80 1009.4
20260508025104 65 292 0.0 1.0 0.00 0.00 0.00 81 1009.4
20260508025004 65 292 0.0 1.0 0.00 0.00 0.00 81 1009.4
20260508024904 65 292 0.0 1.0 0.00 0.00 0.00 81 1009.4
20260508024804 65 292 0.0 1.0 0.00 0.00 0.00 81 1009.4
20260508024704 65 292 0.0 1.0 0.00 0.00 0.00 81 1009.4
20260508024604 65 292 0.0 1.0 0.00 0.00 0.00 81 1009.4
20260508024504 65 292 0.0 1.0 0.00 0.00 0.00 81 1009.5
20260508024404 65 292 0.0 1.0 0.00 0.00 0.00 81 1009.4
20260508024303 65 292 0.0 1.0 0.00 0.00 0.00 81 1009.5
20260508024204 65 292 0.0 1.0 0.00 0.00 0.00 81 1009.5
20260508024104 65 292 0.0 1.0 0.00 0.00 0.00 80 1009.5
20260508024004 65 292 0.0 1.0 0.00 0.00 0.00 80 1009.5
20260508023904 65 292 0.0 1.0 0.00 0.00 0.00 80 1009.4
20260508023804 65 292 0.0 1.0 0.00 0.00 0.00 80 1009.5
20260508023703 65 296 0.0 1.0 0.00 0.00 0.00 80 1009.5
20260508023603 65 296 0.0 1.0 0.00 0.00 0.00 80 1009.5
20260508023504 65 296 0.0 1.0 0.00 0.00 0.00 80 1009.4
20260508023403 65 296 0.0 1.0 0.00 0.00 0.00 80 1009.3
20260508023303 65 296 0.0 1.0 0.00 0.00 0.00 80 1009.4
20260508023203 65 298 0.0 1.0 0.00 0.00 0.00 80 1009.4
20260508023103 65 298 0.0 1.0 0.00 0.00 0.00 80 1009.3
20260508023003 65 315 0.0 1.0 0.00 0.00 0.00 80 1009.4
20260508022903 65 315 0.0 1.0 0.00 0.00 0.00 80 1009.4
20260508022803 65 315 0.0 1.0 0.00 0.00 0.00 80 1009.4
20260508022704 65 0 0.0 0.0 0.00 0.00 0.00 80 1009.3
20260508022603 65 0 0.0 0.0 0.00 0.00 0.00 80 1009.3
20260508022503 65 0 0.0 0.0 0.00 0.00 0.00 80 1009.3
20260508022403 65 0 0.0 0.0 0.00 0.00 0.00 80 1009.2
20260508022306 65 0 0.0 0.0 0.00 0.00 0.00 80 1009.2
20260508022204 65 0 0.0 0.0 0.00 0.00 0.00 80 1009.2
20260508022103 65 0 0.0 0.0 0.00 0.00 0.00 80 1009.2
20260508022003 65 0 0.0 0.0 0.00 0.00 0.00 80 1009.2
20260508021903 65 0 0.0 0.0 0.00 0.00 0.00 80 1009.2
20260508021803 65 0 0.0 0.0 0.00 0.00 0.00 80 1009.2
20260508021703 65 0 0.0 0.0 0.00 0.00 0.00 80 1009.2
20260508021603 65 0 0.0 0.0 0.00 0.00 0.00 80 1009.2
20260508021503 65 0 0.0 0.0 0.00 0.00 0.00 80 1009.2
20260508021403 65 0 0.0 0.0 0.00 0.00 0.00 80 1009.2
20260508021303 65 0 0.0 0.0 0.00 0.00 0.00 80 1009.1
20260508021203 65 0 0.0 0.0 0.00 0.00 0.00 80 1009.2
20260508021103 65 0 0.0 0.0 0.00 0.00 0.00 80 1009.2
20260508021003 65 0 0.0 0.0 0.00 0.00 0.00 80 1009.2
20260508020903 65 0 0.0 0.0 0.00 0.00 0.00 80 1009.3
20260508020803 65 0 0.0 0.0 0.00 0.00 0.00 80 1009.2
20260508020703 65 0 0.0 0.0 0.00 0.00 0.00 80 1009.2
20260508020603 65 0 0.0 0.0 0.00 0.00 0.00 80 1009.4
20260508020503 65 0 0.0 0.0 0.00 0.00 0.00 79 1009.5
20260508020403 65 0 0.0 0.0 0.00 0.00 0.00 80 1009.5
20260508020303 65 0 0.0 0.0 0.00 0.00 0.00 79 1009.5
20260508020203 65 0 0.0 0.0 0.00 0.00 0.00 79 1009.6
20260508020103 65 0 0.0 0.0 0.00 0.00 0.00 79 1009.6
20260508020003 65 0 0.0 0.0 0.00 0.00 0.00 79 1009.6
20260508015903 65 0 0.0 0.0 0.00 0.00 0.00 79 1009.6
20260508015803 65 0 0.0 0.0 0.00 0.00 0.00 79 1009.6
20260508015703 65 0 0.0 0.0 0.00 0.00 0.00 79 1009.7
20260508015603 65 0 0.0 0.0 0.00 0.00 0.00 79 1009.5
20260508015503 65 0 0.0 0.0 0.00 0.00 0.00 79 1009.5
20260508015403 65 0 0.0 0.0 0.00 0.00 0.00 79 1009.6
20260508015306 65 0 0.0 0.0 0.00 0.00 0.00 79 1009.5
20260508015203 65 0 0.0 0.0 0.00 0.00 0.00 79 1009.6
20260508015103 65 0 0.0 0.0 0.00 0.00 0.00 79 1009.6
20260508015003 65 0 0.0 0.0 0.00 0.00 0.00 79 1009.5
20260508014903 65 0 0.0 0.0 0.00 0.00 0.00 79 1009.5
20260508014803 65 0 0.0 0.0 0.00 0.00 0.00 79 1009.6
20260508014703 65 0 0.0 0.0 0.00 0.00 0.00 79 1009.5
20260508014603 65 0 0.0 0.0 0.00 0.00 0.00 79 1009.5
20260508014503 65 0 0.0 0.0 0.00 0.00 0.00 79 1009.4
20260508014403 65 0 0.0 0.0 0.00 0.00 0.00 79 1009.4
20260508014303 65 0 0.0 0.0 0.00 0.00 0.00 79 1009.4
20260508014203 65 0 0.0 0.0 0.00 0.00 0.00 79 1009.3
20260508014103 65 0 0.0 0.0 0.00 0.00 0.00 79 1009.3
20260508014003 65 0 0.0 0.0 0.00 0.00 0.00 79 1009.3
20260508013903 65 0 0.0 0.0 0.00 0.00 0.00 79 1009.3
20260508013803 65 0 0.0 0.0 0.00 0.00 0.00 79 1009.4
20260508013703 65 0 0.0 0.0 0.00 0.00 0.00 79 1009.5
20260508013603 65 0 0.0 0.0 0.00 0.00 0.00 79 1009.6
20260508013503 65 0 0.0 0.0 0.00 0.00 0.00 79 1009.6
20260508013403 65 0 0.0 0.0 0.00 0.00 0.00 79 1009.6
20260508013303 65 0 0.0 0.0 0.00 0.00 0.00 79 1009.6
20260508013203 65 0 0.0 0.0 0.00 0.00 0.00 79 1009.6
20260508013103 65 0 0.0 0.0 0.00 0.00 0.00 79 1009.7
20260508013003 65 0 0.0 0.0 0.00 0.00 0.00 79 1009.5
20260508012903 65 0 0.0 0.0 0.00 0.00 0.00 79 1009.5
20260508012803 65 0 0.0 0.0 0.00 0.00 0.00 79 1009.6
20260508012703 65 0 0.0 0.0 0.00 0.00 0.00 79 1009.5
20260508012603 65 0 0.0 0.0 0.00 0.00 0.00 79 1009.6
20260508012503 65 0 0.0 0.0 0.00 0.00 0.00 79 1009.6
20260508012403 66 0 0.0 0.0 0.00 0.00 0.00 79 1009.6
20260508012307 66 112 0.0 1.0 0.00 0.00 0.00 79 1009.5
20260508012203 66 112 0.0 1.0 0.00 0.00 0.00 79 1009.6
20260508012103 66 112 0.0 2.0 0.00 0.00 0.00 79 1009.6
20260508012003 66 112 0.0 2.0 0.00 0.00 0.00 79 1009.7
20260508011903 66 116 0.0 2.0 0.00 0.00 0.00 79 1009.7
20260508011803 66 116 0.0 2.0 0.00 0.00 0.00 79 1009.7
20260508011703 66 116 0.0 2.0 0.00 0.00 0.00 78 1009.9
20260508011603 66 116 0.0 2.0 0.00 0.00 0.00 78 1009.8
20260508011503 66 112 0.0 2.0 0.00 0.00 0.00 78 1009.9
20260508011403 66 112 0.0 2.0 0.00 0.00 0.00 78 1009.9
20260508011303 66 112 0.0 2.0 0.00 0.00 0.00 78 1009.9
20260508011203 66 109 0.0 2.0 0.00 0.00 0.00 78 1010.0
20260508011103 66 108 0.0 2.0 0.00 0.00 0.00 78 1010.0
20260508011003 66 108 0.0 2.0 0.00 0.00 0.00 78 1010.1
20260508010903 66 102 0.0 2.0 0.00 0.00 0.00 78 1009.9
20260508010803 66 102 0.0 2.0 0.00 0.00 0.00 78 1009.9
20260508010703 66 99 0.0 3.0 0.00 0.00 0.00 78 1009.8
20260508010603 66 97 0.0 3.0 0.00 0.00 0.00 77 1009.8
20260508010503 66 98 0.0 3.0 0.00 0.00 0.00 77 1010.0
20260508010403 66 98 0.0 3.0 0.00 0.00 0.00 77 1010.0
20260508010303 66 95 0.0 3.0 0.00 0.00 0.00 77 1010.0
20260508010203 66 94 0.0 3.0 0.00 0.00 0.00 77 1010.1
20260508010003 66 100 0.0 3.0 0.00 0.00 0.00 77 1010.0
20260508005904 66 101 0.0 3.0 0.00 0.00 0.00 77 1010.1
20260508005804 66 101 0.0 3.0 0.00 0.00 0.00 77 1009.9
20260508005704 66 108 0.0 2.0 0.00 0.00 0.00 77 1009.9
20260508005604 66 124 0.0 2.0 0.00 0.00 0.00 77 1009.9
20260508005504 66 124 0.0 2.0 0.00 0.00 0.00 77 1009.8
20260508005404 66 124 0.0 2.0 0.00 0.00 0.00 77 1009.8
20260508005306 66 124 0.0 2.0 0.00 0.00 0.00 77 1009.7
20260508005204 66 124 0.0 2.0 0.00 0.00 0.00 77 1009.8
20260508005104 66 124 0.0 2.0 0.00 0.00 0.00 76 1009.7
20260508005004 66 135 0.0 1.0 0.00 0.00 0.00 76 1009.7
20260508004904 66 106 0.0 3.0 0.00 0.00 0.00 76 1009.7
20260508004804 66 105 0.0 3.0 0.00 0.00 0.00 76 1009.6
20260508004704 66 109 0.0 3.0 0.00 0.00 0.00 76 1009.7
20260508004604 66 105 0.0 3.0 0.00 0.00 0.00 76 1009.9
20260508004504 66 101 0.0 3.0 0.00 0.00 0.00 76 1009.8
20260508004404 66 101 0.0 3.0 0.00 0.00 0.00 76 1009.9
20260508004304 66 101 0.0 3.0 0.00 0.00 0.00 76 1009.9
20260508004204 66 101 0.0 3.0 0.00 0.00 0.00 76 1009.9
20260508004104 66 101 0.0 3.0 0.00 0.00 0.00 76 1010.0
20260508004004 66 101 0.0 3.0 0.00 0.00 0.00 76 1010.1
20260508003904 67 102 0.0 3.0 0.00 0.00 0.00 76 1010.0
20260508003804 66 102 0.0 3.0 0.00 0.00 0.00 76 1010.0
20260508003704 66 93 0.0 3.0 0.00 0.00 0.00 76 1010.0
20260508003604 66 70 0.0 3.0 0.00 0.00 0.00 76 1010.1
20260508003504 66 90 0.0 0.0 0.00 0.00 0.00 76 1010.1
20260508003404 67 90 0.0 0.0 0.00 0.00 0.00 76 1010.1
20260508003304 67 90 0.0 0.0 0.00 0.00 0.00 76 1010.2
20260508003204 66 90 0.0 0.0 0.00 0.00 0.00 76 1010.3
20260508003104 66 90 0.0 0.0 0.00 0.00 0.00 76 1010.4
20260508003005 66 90 0.0 0.0 0.00 0.00 0.00 76 1010.4
20260508002904 66 90 0.0 0.0 0.00 0.00 0.00 76 1010.4
20260508002804 66 90 0.0 0.0 0.00 0.00 0.00 76 1010.4
20260508002704 66 0 0.0 0.0 0.00 0.00 0.00 76 1010.3
20260508002604 66 0 0.0 0.0 0.00 0.00 0.00 76 1010.3
20260508002504 66 0 0.0 0.0 0.00 0.00 0.00 76 1010.3
20260508002404 66 0 0.0 0.0 0.00 0.00 0.00 76 1010.1
20260508002306 66 0 0.0 0.0 0.00 0.00 0.00 76 1010.2
20260508002204 66 0 0.0 0.0 0.00 0.00 0.00 76 1010.3
20260508002103 66 0 0.0 0.0 0.00 0.00 0.00 76 1010.2
20260508002004 66 0 0.0 0.0 0.00 0.00 0.00 76 1010.2
20260508001904 66 0 0.0 0.0 0.00 0.00 0.00 76 1010.1
20260508001803 66 0 0.0 0.0 0.00 0.00 0.00 76 1010.2
20260508001703 66 0 0.0 0.0 0.00 0.00 0.00 76 1010.2
20260508001603 66 0 0.0 0.0 0.00 0.00 0.00 76 1010.2
20260508001503 66 0 0.0 0.0 0.00 0.00 0.00 76 1010.1
20260508001403 66 0 0.0 0.0 0.00 0.00 0.00 76 1010.2
20260508001303 66 0 0.0 0.0 0.00 0.00 0.00 76 1010.1
20260508001203 66 0 0.0 0.0 0.00 0.00 0.00 76 1010.1
20260508001104 66 0 0.0 0.0 0.00 0.00 0.00 76 1010.0
20260508001003 66 0 0.0 0.0 0.00 0.00 0.00 76 1010.0
20260508000903 66 0 0.0 0.0 0.00 0.00 0.00 76 1010.1
20260508000803 66 0 0.0 0.0 0.00 0.00 0.00 76 1010.2
20260508000703 66 0 0.0 0.0 0.00 0.00 0.00 76 1010.2
20260508000603 66 0 0.0 0.0 0.00 0.00 0.00 76 1010.1
20260508000503 66 0 0.0 0.0 0.00 0.00 0.00 76 1010.1
20260508000405 66 0 0.0 0.0 0.00 0.00 0.00 76 1010.2
20260508000305 66 0 0.0 0.0 0.00 0.00 0.00 76 1010.1
20260508000204 66 0 0.0 0.0 0.00 0.00 0.00 76 1010.2
20260508000103 66 135 0.0 2.0 0.00 0.00 0.00 77 1010.2
20260508000004 66 135 0.0 2.0 0.00 0.00 0.00 77 1010.2
20260507235903 66 135 0.0 2.0 0.00 0.00 0.00 77 1010.3
20260507235803 66 135 0.0 2.0 0.00 0.00 0.00 77 1010.4
20260507235703 66 135 0.0 2.0 0.00 0.00 0.00 77 1010.3
20260507235603 66 135 0.0 2.0 0.00 0.00 0.00 77 1010.5
20260507235503 66 135 0.0 2.0 0.00 0.00 0.00 77 1010.5
20260507235403 66 135 0.0 2.0 0.00 0.00 0.00 77 1010.4
20260507235306 66 135 0.0 2.0 0.00 0.00 0.00 77 1010.4
20260507235203 66 124 0.0 2.0 0.00 0.00 0.00 77 1010.5
20260507235103 66 120 0.0 4.0 0.00 0.00 0.00 77 1010.4
20260507235003 66 116 0.0 4.0 0.00 0.00 0.00 77 1010.4
20260507234903 66 116 0.0 4.0 0.00 0.00 0.00 77 1010.6
20260507234803 66 116 0.0 4.0 0.00 0.00 0.00 77 1010.4
20260507234703 66 116 0.0 4.0 0.00 0.00 0.00 77 1010.5
20260507234603 66 116 0.0 4.0 0.00 0.00 0.00 77 1010.5
20260507234503 66 122 0.0 4.0 0.00 0.00 0.00 77 1010.5
20260507234403 66 119 0.0 4.0 0.00 0.00 0.00 77 1010.5
20260507234303 66 121 0.0 4.0 0.00 0.00 0.00 77 1010.5
20260507234203 66 122 0.0 4.0 0.00 0.00 0.00 77 1010.5
20260507234103 66 122 0.0 4.0 0.00 0.00 0.00 76 1010.7
20260507234003 66 111 0.0 4.0 0.00 0.00 0.00 76 1010.8
20260507233903 66 108 0.0 4.0 0.00 0.00 0.00 76 1010.9
20260507233803 66 108 0.0 4.0 0.00 0.00 0.00 76 1010.9
20260507233703 66 112 1.0 4.0 0.00 0.00 0.00 77 1010.9
20260507233603 66 111 1.0 4.0 0.00 0.00 0.00 77 1011.0
20260507233503 66 110 1.0 4.0 0.00 0.00 0.00 76 1011.0
20260507233403 66 104 0.0 4.0 0.00 0.00 0.00 76 1011.0
20260507233303 66 103 0.0 4.0 0.00 0.00 0.00 76 1011.0
20260507233203 66 103 0.0 4.0 0.00 0.00 0.00 76 1011.0
20260507233103 66 103 0.0 4.0 0.00 0.00 0.00 76 1011.0
20260507233003 66 109 0.0 4.0 0.00 0.00 0.00 76 1011.0
20260507232903 66 111 0.0 4.0 0.00 0.00 0.00 76 1010.9
20260507232803 66 112 0.0 4.0 0.00 0.00 0.00 76 1010.8
20260507232703 66 103 0.0 4.0 0.00 0.00 0.00 76 1010.8
20260507232603 66 105 0.0 4.0 0.00 0.00 0.00 76 1010.9
20260507232503 66 108 0.0 4.0 0.00 0.00 0.00 76 1011.0
20260507232403 66 105 0.0 3.0 0.00 0.00 0.00 76 1011.0
20260507232306 66 106 0.0 3.0 0.00 0.00 0.00 76 1011.0
20260507232203 66 109 0.0 5.0 0.00 0.00 0.00 76 1011.0
20260507232103 66 109 0.0 5.0 0.00 0.00 0.00 76 1011.0
20260507232003 67 109 0.0 5.0 0.00 0.00 0.00 76 1011.0
20260507231903 67 109 0.0 5.0 0.00 0.00 0.00 76 1010.9
20260507231803 67 109 0.0 5.0 0.00 0.00 0.00 75 1011.0
20260507231703 67 111 0.0 5.0 0.00 0.00 0.00 75 1010.9
20260507231603 67 111 0.0 5.0 0.00 0.00 0.00 75 1010.9
20260507231503 67 111 0.0 5.0 0.00 0.00 0.00 75 1010.9
20260507231403 67 111 0.0 5.0 0.00 0.00 0.00 75 1010.9
20260507231303 67 111 0.0 5.0 0.00 0.00 0.00 75 1010.9
20260507231203 67 108 0.0 3.0 0.00 0.00 0.00 75 1010.8
20260507231003 67 105 0.0 5.0 0.00 0.00 0.00 75 1010.9
20260507230903 67 108 0.0 5.0 0.00 0.00 0.00 75 1010.9
20260507230803 67 107 0.0 5.0 0.00 0.00 0.00 75 1010.9
20260507230703 67 105 0.0 5.0 0.00 0.00 0.00 75 1010.9
20260507230603 67 101 0.0 2.0 0.00 0.00 0.00 75 1010.9
20260507230503 67 112 0.0 2.0 0.00 0.00 0.00 75 1010.8
20260507230403 67 115 0.0 3.0 0.00 0.00 0.00 75 1010.9
20260507230303 67 112 0.0 3.0 0.00 0.00 0.00 75 1010.8
20260507230203 67 112 0.0 3.0 0.00 0.00 0.00 75 1010.7
20260507230003 67 112 0.0 3.0 0.00 0.00 0.00 75 1010.7
20260507225903 67 112 0.0 4.0 0.00 0.00 0.00 75 1010.8
20260507225803 67 112 0.0 4.0 0.00 0.00 0.00 75 1010.9
20260507225703 67 112 0.0 4.0 0.00 0.00 0.00 75 1010.8
20260507225603 67 112 0.0 4.0 0.00 0.00 0.00 74 1010.7
20260507225503 67 112 0.0 4.0 0.00 0.00 0.00 74 1010.7
20260507225403 67 110 0.0 4.0 0.00 0.00 0.00 74 1010.7
20260507225306 67 109 0.0 4.0 0.00 0.00 0.00 74 1010.7
20260507225203 67 109 0.0 4.0 0.00 0.00 0.00 74 1010.6
20260507225103 67 109 0.0 4.0 0.00 0.00 0.00 74 1010.6
20260507225003 67 112 0.0 4.0 0.00 0.00 0.00 74 1010.4
20260507224903 67 117 0.0 3.0 0.00 0.00 0.00 74 1010.5
20260507224803 67 112 0.0 3.0 0.00 0.00 0.00 74 1010.6
20260507224703 67 112 0.0 3.0 0.00 0.00 0.00 74 1010.5
20260507224603 67 112 0.0 3.0 0.00 0.00 0.00 74 1010.5
20260507224504 67 112 0.0 3.0 0.00 0.00 0.00 74 1010.5
20260507224403 67 110 0.0 3.0 0.00 0.00 0.00 74 1010.4
20260507224303 67 111 0.0 3.0 0.00 0.00 0.00 74 1010.3
20260507224203 67 110 0.0 3.0 0.00 0.00 0.00 74 1010.4
20260507224103 67 110 0.0 3.0 0.00 0.00 0.00 74 1010.4
20260507224003 67 109 0.0 3.0 0.00 0.00 0.00 73 1010.4
20260507223903 67 105 0.0 3.0 0.00 0.00 0.00 73 1010.4
20260507223803 67 100 0.0 2.0 0.00 0.00 0.00 73 1010.5
20260507223703 67 108 0.0 4.0 0.00 0.00 0.00 73 1010.5
20260507223603 67 108 0.0 4.0 0.00 0.00 0.00 73 1010.5
20260507223503 67 108 0.0 4.0 0.00 0.00 0.00 73 1010.5
20260507223403 67 111 0.0 4.0 0.00 0.00 0.00 73 1010.5
20260507223303 67 109 0.0 4.0 0.00 0.00 0.00 73 1010.6
20260507223203 67 111 0.0 4.0 0.00 0.00 0.00 73 1010.6
20260507223103 67 113 1.0 4.0 0.00 0.00 0.00 73 1010.7
20260507223003 67 113 1.0 4.0 0.00 0.00 0.00 73 1010.7
20260507222903 67 113 1.0 4.0 0.00 0.00 0.00 73 1010.7
20260507222803 67 109 1.0 4.0 0.00 0.00 0.00 72 1010.8
20260507222703 67 110 1.0 4.0 0.00 0.00 0.00 72 1010.7
20260507222604 67 110 1.0 4.0 0.00 0.00 0.00 72 1010.6
20260507222504 67 110 1.0 4.0 0.00 0.00 0.00 72 1010.6
20260507222404 67 110 1.0 4.0 0.00 0.00 0.00 72 1010.6
20260507222306 67 109 1.0 4.0 0.00 0.00 0.00 72 1010.7
20260507222204 67 110 0.0 4.0 0.00 0.00 0.00 72 1010.6
20260507222104 67 110 0.0 4.0 0.00 0.00 0.00 72 1010.6
20260507222004 67 107 0.0 4.0 0.00 0.00 0.00 72 1010.6
20260507221904 67 107 0.0 4.0 0.00 0.00 0.00 72 1010.6
20260507221804 67 107 0.0 4.0 0.00 0.00 0.00 72 1010.6
20260507221704 67 112 0.0 3.0 0.00 0.00 0.00 72 1010.6
20260507221604 67 110 0.0 3.0 0.00 0.00 0.00 72 1010.5
20260507221504 67 110 0.0 3.0 0.00 0.00 0.00 72 1010.5
20260507221404 67 110 0.0 3.0 0.00 0.00 0.00 72 1010.4
20260507221304 67 111 0.0 4.0 0.00 0.00 0.00 72 1010.4
20260507221204 67 111 0.0 4.0 0.00 0.00 0.00 72 1010.4
20260507221104 67 110 0.0 4.0 0.00 0.00 0.00 72 1010.5
20260507221004 67 110 0.0 4.0 0.00 0.00 0.00 72 1010.4
20260507220904 67 110 0.0 4.0 0.00 0.00 0.00 72 1010.4
20260507220804 67 110 0.0 4.0 0.00 0.00 0.00 72 1010.4
20260507220704 67 111 0.0 4.0 0.00 0.00 0.00 71 1010.4
20260507220604 68 113 0.0 4.0 0.00 0.00 0.00 71 1010.3
20260507220504 68 113 0.0 4.0 0.00 0.00 0.00 71 1010.3
20260507220404 68 117 0.0 4.0 0.00 0.00 0.00 71 1010.3
20260507220304 68 121 0.0 3.0 0.00 0.00 0.00 71 1010.3
20260507220204 68 120 0.0 3.0 0.00 0.00 0.00 71 1010.5
20260507220104 68 120 0.0 3.0 0.00 0.00 0.00 71 1010.5
20260507220042 68 120 0.0 3.0 0.00 0.00 0.00 71 1010.5
20260507215904 68 116 0.0 3.0 0.00 0.00 0.00 71 1010.5
20260507215804 68 116 0.0 3.0 0.00 0.00 0.00 71 1010.5
20260507215704 68 116 0.0 3.0 0.00 0.00 0.00 71 1010.4
20260507215604 68 116 0.0 3.0 0.00 0.00 0.00 71 1010.4
20260507215504 68 116 0.0 3.0 0.00 0.00 0.00 71 1010.4
20260507215404 68 113 0.0 3.0 0.00 0.00 0.00 71 1010.3
20260507215306 68 110 0.0 3.0 0.00 0.00 0.00 70 1010.3
20260507215204 68 109 0.0 3.0 0.00 0.00 0.00 70 1010.3
20260507215104 68 109 0.0 3.0 0.00 0.00 0.00 70 1010.3
20260507215004 68 109 0.0 3.0 0.00 0.00 0.00 70 1010.3
20260507214904 68 112 0.0 4.0 0.00 0.00 0.00 70 1010.4
20260507214804 68 112 0.0 4.0 0.00 0.00 0.00 70 1010.4
20260507214704 68 109 0.0 4.0 0.00 0.00 0.00 70 1010.4
20260507214604 68 109 0.0 4.0 0.00 0.00 0.00 70 1010.4
20260507214504 68 109 0.0 4.0 0.00 0.00 0.00 70 1010.4
20260507214404 68 109 0.0 4.0 0.00 0.00 0.00 70 1010.4
20260507214304 68 109 0.0 4.0 0.00 0.00 0.00 70 1010.4
20260507214204 68 110 0.0 4.0 0.00 0.00 0.00 70 1010.5
20260507214104 68 110 0.0 4.0 0.00 0.00 0.00 70 1010.4
20260507214004 68 111 0.0 4.0 0.00 0.00 0.00 70 1010.4
20260507213903 68 108 0.0 2.0 0.00 0.00 0.00 70 1010.4
20260507213804 68 109 0.0 3.0 0.00 0.00 0.00 70 1010.4
20260507213704 68 110 0.0 4.0 0.00 0.00 0.00 70 1010.3
20260507213603 68 110 0.0 4.0 0.00 0.00 0.00 70 1010.5
20260507213503 68 110 0.0 4.0 0.00 0.00 0.00 70 1010.6
20260507213403 68 110 0.0 4.0 0.00 0.00 0.00 70 1010.6
20260507213303 68 113 0.0 4.0 0.00 0.00 0.00 70 1010.6
20260507213203 68 113 0.0 4.0 0.00 0.00 0.00 70 1010.6
20260507213103 68 113 0.0 4.0 0.00 0.00 0.00 69 1010.6
20260507213003 68 114 0.0 4.0 0.00 0.00 0.00 69 1010.6
20260507212905 68 114 0.0 4.0 0.00 0.00 0.00 69 1010.6
20260507212803 68 117 0.0 4.0 0.00 0.00 0.00 69 1010.6
20260507212703 68 118 0.0 3.0 0.00 0.00 0.00 69 1010.6
20260507212603 68 121 0.0 3.0 0.00 0.00 0.00 69 1010.7
20260507212503 68 122 0.0 3.0 0.00 0.00 0.00 69 1010.7
20260507212403 68 122 0.0 3.0 0.00 0.00 0.00 69 1010.8
20260507212306 68 114 0.0 3.0 0.00 0.00 0.00 69 1010.8
20260507212203 68 114 0.0 3.0 0.00 0.00 0.00 69 1010.8
20260507212103 68 114 0.0 3.0 0.00 0.00 0.00 69 1010.7
20260507212003 68 112 0.0 3.0 0.00 0.00 0.00 69 1010.7
20260507211903 68 113 0.0 3.0 0.00 0.00 0.00 69 1010.8
20260507211803 68 113 0.0 3.0 0.00 0.00 0.00 69 1010.8
20260507211703 68 113 0.0 3.0 0.00 0.00 0.00 69 1010.9
20260507211603 68 108 0.0 3.0 0.00 0.00 0.00 69 1010.9
20260507211503 68 101 0.0 3.0 0.00 0.00 0.00 69 1011.0
20260507211403 68 99 0.0 3.0 0.00 0.00 0.00 69 1010.9
20260507211303 68 103 0.0 4.0 0.00 0.00 0.00 69 1011.0
20260507211203 68 103 0.0 4.0 0.00 0.00 0.00 69 1011.0
20260507211103 68 103 0.0 4.0 0.00 0.00 0.00 69 1010.9
20260507211003 68 99 0.0 4.0 0.00 0.00 0.00 69 1010.9
20260507210903 68 97 0.0 4.0 0.00 0.00 0.00 69 1010.9
20260507210803 68 100 0.0 4.0 0.00 0.00 0.00 69 1010.9
20260507210703 68 103 0.0 4.0 0.00 0.00 0.00 69 1010.7
20260507210603 68 103 0.0 4.0 0.00 0.00 0.00 69 1010.8
20260507210503 68 102 0.0 4.0 0.00 0.00 0.00 69 1010.8
20260507210403 68 105 0.0 4.0 0.00 0.00 0.00 69 1010.7
20260507210303 68 108 0.0 2.0 0.00 0.00 0.00 69 1010.8
20260507210203 68 108 0.0 2.0 0.00 0.00 0.00 69 1010.8
20260507210103 68 112 0.0 2.0 0.00 0.00 0.00 69 1010.8
20260507210003 68 112 0.0 2.0 0.00 0.00 0.00 69 1010.7
20260507205903 68 112 0.0 2.0 0.00 0.00 0.00 69 1010.6
20260507205803 68 110 0.0 2.0 0.00 0.00 0.00 68 1010.6
20260507205703 68 109 0.0 2.0 0.00 0.00 0.00 68 1010.5
20260507205603 68 109 0.0 2.0 0.00 0.00 0.00 68 1010.6
20260507205503 68 110 0.0 2.0 0.00 0.00 0.00 68 1010.5
20260507205403 68 109 0.0 2.0 0.00 0.00 0.00 68 1010.5
20260507205306 68 109 0.0 2.0 0.00 0.00 0.00 68 1010.5
20260507205203 68 109 0.0 2.0 0.00 0.00 0.00 68 1010.4
20260507205103 68 106 0.0 3.0 0.00 0.00 0.00 68 1010.4
20260507205003 68 104 0.0 3.0 0.00 0.00 0.00 68 1010.3
20260507204903 68 103 0.0 3.0 0.00 0.00 0.00 68 1010.3
20260507204803 68 103 0.0 3.0 0.00 0.00 0.00 68 1010.2
20260507204703 68 103 0.0 3.0 0.00 0.00 0.00 68 1010.1
20260507204603 68 58 0.0 6.0 0.00 0.00 0.00 68 1010.2
20260507204503 68 297 0.0 6.0 0.00 0.00 0.00 68 1010.2
20260507204403 68 298 0.0 6.0 0.00 0.00 0.00 68 1010.2
20260507204303 68 298 0.0 6.0 0.00 0.00 0.00 68 1010.2
20260507204203 68 295 0.0 6.0 0.00 0.00 0.00 67 1010.2
20260507204103 68 294 0.0 6.0 0.00 0.00 0.00 67 1010.1
20260507204003 68 289 0.0 6.0 0.00 0.00 0.00 67 1010.1
20260507203903 68 289 0.0 6.0 0.00 0.00 0.00 67 1010.2
20260507203803 68 289 0.0 6.0 0.00 0.00 0.00 67 1010.2
20260507203703 68 293 0.0 6.0 0.00 0.00 0.00 67 1010.2
20260507203603 68 303 0.0 4.0 0.00 0.00 0.00 67 1010.1
20260507203503 68 332 0.0 4.0 0.00 0.00 0.00 67 1010.2
20260507203403 68 321 0.0 4.0 0.00 0.00 0.00 67 1010.2
20260507203303 68 315 0.0 4.0 0.00 0.00 0.00 67 1010.2
20260507203203 68 315 0.0 4.0 0.00 0.00 0.00 67 1010.2
20260507203103 68 312 0.0 4.0 0.00 0.00 0.00 67 1010.2
20260507203003 68 312 0.0 4.0 0.00 0.00 0.00 67 1010.3
20260507202903 68 309 0.0 4.0 0.00 0.00 0.00 66 1010.2
20260507202803 68 307 0.0 4.0 0.00 0.00 0.00 66 1010.3
20260507202703 68 303 0.0 4.0 0.00 0.00 0.00 66 1010.3
20260507202603 68 277 0.0 1.0 0.00 0.00 0.00 66 1010.2
20260507202503 68 277 0.0 1.0 0.00 0.00 0.00 66 1010.3
20260507202403 68 245 0.0 2.0 0.00 0.00 0.00 66 1010.4
20260507202306 68 218 0.0 2.0 0.00 0.00 0.00 66 1010.2
20260507202203 68 218 0.0 2.0 0.00 0.00 0.00 66 1010.3
20260507202103 68 176 0.0 2.0 0.00 0.00 0.00 66 1010.4
20260507202003 68 176 0.0 2.0 0.00 0.00 0.00 66 1010.3
20260507201903 68 142 0.0 2.0 0.00 0.00 0.00 66 1010.3
20260507201803 68 121 0.0 2.0 0.00 0.00 0.00 66 1010.3
20260507201703 68 134 0.0 2.0 0.00 0.00 0.00 66 1010.3
20260507201603 68 134 0.0 2.0 0.00 0.00 0.00 66 1010.3
20260507201503 68 183 0.0 2.0 0.00 0.00 0.00 66 1010.3
20260507201403 68 330 0.0 1.0 0.00 0.00 0.00 66 1010.3
20260507201303 68 79 0.0 2.0 0.00 0.00 0.00 66 1010.3
20260507201203 68 91 0.0 4.0 0.00 0.00 0.00 66 1010.4
20260507201103 68 91 0.0 4.0 0.00 0.00 0.00 65 1010.3
20260507201003 68 77 0.0 4.0 0.00 0.00 0.00 65 1010.3
20260507200903 68 81 0.0 4.0 0.00 0.00 0.00 65 1010.4
20260507200803 68 342 0.0 4.0 0.00 0.00 0.00 65 1010.4
20260507200703 68 297 0.0 4.0 0.00 0.00 0.00 65 1010.3
20260507200603 68 297 0.0 4.0 0.00 0.00 0.00 65 1010.4
20260507200503 68 304 0.0 4.0 0.00 0.00 0.00 65 1010.4
20260507200403 68 304 0.0 4.0 0.00 0.00 0.00 65 1010.4
20260507200303 68 301 0.0 4.0 0.00 0.00 0.00 65 1010.4
20260507200203 68 286 0.0 4.0 0.00 0.00 0.00 65 1010.4
20260507200103 68 288 0.0 4.0 0.00 0.00 0.00 65 1010.4
20260507200003 69 290 0.0 4.0 0.00 0.00 0.00 65 1010.3
20260507195903 69 290 0.0 4.0 0.00 0.00 0.00 65 1010.4
20260507195803 69 120 0.0 4.0 0.00 0.00 0.00 65 1010.3
20260507195703 69 67 0.0 4.0 0.00 0.00 0.00 65 1010.3
20260507195603 69 84 0.0 2.0 0.00 0.00 0.00 65 1010.3
20260507195504 69 97 0.0 2.0 0.00 0.00 0.00 65 1010.3
20260507195404 69 97 0.0 2.0 0.00 0.00 0.00 65 1010.3
20260507195305 69 97 0.0 2.0 0.00 0.00 0.00 65 1010.2
20260507195204 69 93 0.0 2.0 0.00 0.00 0.00 65 1010.3
20260507195104 69 98 0.0 2.0 0.00 0.00 0.00 65 1010.2
20260507195004 69 92 0.0 2.0 0.00 0.00 0.00 65 1010.2
20260507194904 69 80 0.0 2.0 0.00 0.00 0.00 65 1010.2
20260507194804 69 80 0.0 2.0 0.00 0.00 0.00 65 1010.0
20260507194704 69 315 0.0 2.0 0.00 0.00 0.00 65 1010.0
20260507194604 69 315 0.0 2.0 0.00 0.00 0.00 64 1010.1
20260507194504 69 298 0.0 2.0 0.00 0.00 0.00 64 1010.1
20260507194404 69 285 0.0 2.0 0.00 0.00 0.00 64 1010.2
20260507194304 69 285 0.0 2.0 0.00 0.00 0.00 64 1010.1
20260507194204 69 285 0.0 2.0 0.00 0.00 0.00 64 1010.1
20260507194104 69 287 0.0 2.0 0.00 0.00 0.00 64 1010.0
20260507194004 69 287 0.0 2.0 0.00 0.00 0.00 64 1010.1
20260507193904 69 285 0.0 2.0 0.00 0.00 0.00 64 1010.1
20260507193804 69 285 0.0 2.0 0.00 0.00 0.00 64 1010.1
20260507193704 69 248 0.0 2.0 0.00 0.00 0.00 64 1010.0
20260507193604 69 221 0.0 2.0 0.00 0.00 0.00 64 1010.0
20260507193504 69 221 0.0 2.0 0.00 0.00 0.00 64 1010.0
20260507193404 69 112 0.0 2.0 0.00 0.00 0.00 64 1010.0
20260507193304 69 112 0.0 2.0 0.00 0.00 0.00 64 1010.0
20260507193204 69 107 0.0 2.0 0.00 0.00 0.00 64 1010.0
20260507193104 69 94 0.0 2.0 0.00 0.00 0.00 64 1010.0
20260507193004 69 94 0.0 2.0 0.00 0.00 0.00 64 1009.9
20260507192904 69 93 0.0 2.0 0.00 0.00 0.00 64 1010.0
20260507192804 69 93 0.0 2.0 0.00 0.00 0.00 64 1010.0
20260507192704 69 93 0.0 2.0 0.00 0.00 0.00 64 1009.9
20260507192604 69 95 0.0 2.0 0.00 0.00 0.00 64 1010.0
20260507192504 69 102 0.0 5.0 0.00 0.00 0.00 64 1009.9
20260507192403 69 103 0.0 5.0 0.00 0.00 0.00 64 1009.9
20260507192306 69 103 0.0 5.0 0.00 0.00 0.00 64 1009.9
20260507192204 69 104 0.0 5.0 0.00 0.00 0.00 64 1009.9
20260507192104 69 106 0.0 5.0 0.00 0.00 0.00 64 1009.9
20260507192004 69 106 0.0 5.0 0.00 0.00 0.00 64 1009.8
20260507191904 69 107 0.0 5.0 0.00 0.00 0.00 64 1009.9
20260507191803 69 107 0.0 5.0 0.00 0.00 0.00 64 1009.8
20260507191704 69 107 0.0 5.0 0.00 0.00 0.00 64 1009.9
20260507191603 69 105 0.0 5.0 0.00 0.00 0.00 64 1009.8
20260507191503 69 90 0.0 3.0 0.00 0.00 0.00 63 1009.8
20260507191404 69 77 0.0 2.0 0.00 0.00 0.00 63 1009.8
20260507191303 69 81 0.0 2.0 0.00 0.00 0.00 63 1009.9
20260507191203 69 81 0.0 2.0 0.00 0.00 0.00 63 1009.8
20260507191103 69 81 0.0 2.0 0.00 0.00 0.00 63 1009.8
20260507191003 69 81 0.0 2.0 0.00 0.00 0.00 63 1009.9
20260507190903 69 81 0.0 2.0 0.00 0.00 0.00 63 1010.0
20260507190803 69 81 0.0 2.0 0.00 0.00 0.00 63 1009.8
20260507190703 69 81 0.0 2.0 0.00 0.00 0.00 63 1010.0
20260507190603 69 81 0.0 2.0 0.00 0.00 0.00 63 1010.0
20260507190504 69 112 0.0 1.0 0.00 0.00 0.00 63 1009.8
20260507190403 69 112 0.0 1.0 0.00 0.00 0.00 63 1010.0
20260507190303 69 202 0.0 1.0 0.00 0.00 0.00 63 1010.0
20260507190203 69 245 0.0 1.0 0.00 0.00 0.00 63 1010.1
20260507190004 69 250 0.0 1.0 0.00 0.00 0.00 63 1010.0
20260507185903 69 250 0.0 1.0 0.00 0.00 0.00 63 1010.0
20260507185803 69 263 0.0 1.0 0.00 0.00 0.00 63 1010.0
20260507185703 69 288 0.0 2.0 0.00 0.00 0.00 63 1009.9
20260507185603 69 288 0.0 2.0 0.00 0.00 0.00 63 1009.9
20260507185503 69 288 0.0 2.0 0.00 0.00 0.00 63 1009.9
20260507185403 69 288 0.0 2.0 0.00 0.00 0.00 63 1009.9
20260507185305 69 353 0.0 4.0 0.00 0.00 0.00 63 1009.8
20260507185203 69 49 0.0 4.0 0.00 0.00 0.00 63 1009.7
20260507185103 69 58 0.0 4.0 0.00 0.00 0.00 62 1009.7
20260507185003 69 63 0.0 4.0 0.00 0.00 0.00 62 1009.7
20260507184903 69 63 0.0 4.0 0.00 0.00 0.00 62 1009.6
20260507184803 69 112 0.0 5.0 0.00 0.00 0.00 63 1009.6
20260507184703 69 117 0.0 5.0 0.00 0.00 0.00 63 1009.6
20260507184603 69 117 0.0 5.0 0.00 0.00 0.00 63 1009.6
20260507184504 69 116 0.0 5.0 0.00 0.00 0.00 63 1009.6
20260507184403 69 116 0.0 5.0 0.00 0.00 0.00 63 1009.6
20260507184303 69 118 0.0 5.0 0.00 0.00 0.00 63 1009.6
20260507184203 69 107 0.0 5.0 0.00 0.00 0.00 63 1009.6
20260507184103 69 106 0.0 5.0 0.00 0.00 0.00 63 1009.6
20260507184003 69 107 1.0 5.0 0.00 0.00 0.00 63 1009.6
20260507183903 69 106 1.0 5.0 0.00 0.00 0.00 63 1009.4
20260507183803 69 108 1.0 7.0 0.00 0.00 0.00 63 1009.5
20260507183703 69 108 1.0 7.0 0.00 0.00 0.00 62 1009.4
20260507183603 69 108 1.0 7.0 0.00 0.00 0.00 62 1009.3
20260507183503 69 108 1.0 7.0 0.00 0.00 0.00 62 1009.3
20260507183403 69 108 1.0 7.0 0.00 0.00 0.00 62 1009.2
20260507183303 69 108 1.0 7.0 0.00 0.00 0.00 62 1009.2
20260507183203 69 112 1.0 7.0 0.00 0.00 0.00 62 1009.2
20260507183103 69 113 1.0 7.0 0.00 0.00 0.00 62 1009.3
20260507183003 69 113 1.0 7.0 0.00 0.00 0.00 62 1009.3
20260507182903 69 117 1.0 7.0 0.00 0.00 0.00 62 1009.3
20260507182803 69 117 1.0 5.0 0.00 0.00 0.00 62 1009.3
20260507182703 69 116 1.0 5.0 0.00 0.00 0.00 62 1009.3
20260507182603 69 115 1.0 6.0 0.00 0.00 0.00 62 1009.4
20260507182503 69 116 1.0 6.0 0.00 0.00 0.00 62 1009.4
20260507182403 69 116 1.0 6.0 0.00 0.00 0.00 62 1009.2
20260507182306 69 116 1.0 6.0 0.00 0.00 0.00 62 1009.3
20260507182203 69 116 1.0 6.0 0.00 0.00 0.00 62 1009.3
20260507182103 69 116 1.0 6.0 0.00 0.00 0.00 62 1009.3
20260507182003 69 117 1.0 6.0 0.00 0.00 0.00 61 1009.2
20260507181903 69 114 1.0 6.0 0.00 0.00 0.00 61 1009.3
20260507181803 69 114 0.0 6.0 0.00 0.00 0.00 61 1009.4
20260507181703 69 112 0.0 6.0 0.00 0.00 0.00 61 1009.4
20260507181603 69 115 0.0 3.0 0.00 0.00 0.00 61 1009.4
20260507181503 69 116 0.0 3.0 0.00 0.00 0.00 61 1009.4
20260507181403 69 112 0.0 3.0 0.00 0.00 0.00 61 1009.5
20260507181303 69 134 0.0 3.0 0.00 0.00 0.00 62 1009.5
20260507181203 69 39 0.0 3.0 0.00 0.00 0.00 61 1009.5
20260507181103 69 88 0.0 3.0 0.00 0.00 0.00 62 1009.5
20260507181003 69 82 0.0 3.0 0.00 0.00 0.00 62 1009.4
20260507180903 69 35 0.0 3.0 0.00 0.00 0.00 62 1009.5
20260507180803 69 88 0.0 3.0 0.00 0.00 0.00 62 1009.5
20260507180703 69 104 0.0 5.0 0.00 0.00 0.00 62 1009.4
20260507180603 69 77 0.0 5.0 0.00 0.00 0.00 62 1009.4
20260507180503 69 92 1.0 5.0 0.00 0.00 0.00 62 1009.4
20260507180403 69 103 1.0 5.0 0.00 0.00 0.00 62 1009.4
20260507180303 69 97 1.0 5.0 0.00 0.00 0.00 62 1009.3
20260507180203 69 100 1.0 5.0 0.00 0.00 0.00 62 1009.3
20260507180003 69 102 1.0 5.0 0.00 0.00 0.00 62 1009.1
20260507175903 69 101 1.0 5.0 0.00 0.00 0.00 62 1009.1
20260507175803 69 91 1.0 5.0 0.00 0.00 0.00 61 1009.1
20260507175703 69 88 1.0 4.0 0.00 0.00 0.00 61 1009.1
20260507175603 69 78 1.0 4.0 0.00 0.00 0.00 61 1009.2
20260507175503 70 70 1.0 4.0 0.00 0.00 0.00 61 1009.2
20260507175403 70 74 1.0 9.0 0.00 0.00 0.00 61 1009.3
20260507175306 70 63 1.0 9.0 0.00 0.00 0.00 61 1009.3
20260507175203 70 70 1.0 9.0 0.00 0.00 0.00 61 1009.4
20260507175103 70 70 1.0 9.0 0.00 0.00 0.00 61 1009.4
20260507175003 70 75 1.0 9.0 0.00 0.00 0.00 61 1009.2
20260507174903 70 49 1.0 9.0 0.00 0.00 0.00 61 1009.3
20260507174803 70 44 1.0 9.0 0.00 0.00 0.00 61 1009.4
20260507174703 70 347 1.0 9.0 0.00 0.00 0.00 61 1009.5
20260507174603 70 65 1.0 9.0 0.00 0.00 0.00 61 1009.5
20260507174503 70 65 1.0 9.0 0.00 0.00 0.00 61 1009.5
20260507174403 70 23 1.0 4.0 0.00 0.00 0.00 61 1009.5
20260507174304 70 76 1.0 4.0 0.00 0.00 0.00 61 1009.4
20260507174204 70 88 1.0 4.0 0.00 0.00 0.00 61 1009.5
20260507174104 70 97 1.0 4.0 0.00 0.00 0.00 61 1009.5
20260507174004 70 93 1.0 4.0 0.00 0.00 0.00 61 1009.5
20260507173904 70 103 1.0 4.0 0.00 0.00 0.00 61 1009.4
20260507173804 70 110 1.0 4.0 0.00 0.00 0.00 61 1009.5
20260507173704 70 113 1.0 4.0 0.00 0.00 0.00 60 1009.4
20260507173604 70 116 1.0 4.0 0.00 0.00 0.00 60 1009.5
20260507173504 70 117 1.0 4.0 0.00 0.00 0.00 60 1009.6
20260507173404 70 117 1.0 4.0 0.00 0.00 0.00 60 1009.5
20260507173304 70 126 1.0 4.0 0.00 0.00 0.00 60 1009.6
20260507173204 70 141 1.0 4.0 0.00 0.00 0.00 60 1009.5
20260507173104 70 169 1.0 4.0 0.00 0.00 0.00 60 1009.6
20260507173004 70 168 1.0 4.0 0.00 0.00 0.00 60 1009.5
20260507172904 70 137 1.0 4.0 0.00 0.00 0.00 60 1009.5
20260507172804 70 156 1.0 4.0 0.00 0.00 0.00 60 1009.5
20260507172704 70 191 1.0 4.0 0.00 0.00 0.00 60 1009.5
20260507172604 70 249 1.0 4.0 0.00 0.00 0.00 60 1009.5
20260507172504 70 251 1.0 4.0 0.00 0.00 0.00 60 1009.6
20260507172404 70 235 1.0 4.0 0.00 0.00 0.00 60 1009.7
20260507172307 71 264 0.0 4.0 0.00 0.00 0.00 59 1009.7
20260507172204 71 252 0.0 4.0 0.00 0.00 0.00 59 1009.8
20260507172104 71 259 0.0 4.0 0.00 0.00 0.00 59 1009.8
20260507172004 71 249 0.0 4.0 0.00 0.00 0.00 59 1009.8
20260507171904 71 255 0.0 4.0 0.00 0.00 0.00 59 1009.7
20260507171804 71 227 0.0 4.0 0.00 0.00 0.00 59 1009.7
20260507171704 71 216 0.0 4.0 0.00 0.00 0.00 59 1009.7
20260507171604 71 183 0.0 4.0 0.00 0.00 0.00 59 1009.7
20260507171504 71 199 0.0 4.0 0.00 0.00 0.00 59 1009.6
20260507171404 71 140 1.0 4.0 0.00 0.00 0.00 59 1009.5
20260507171304 71 108 1.0 5.0 0.00 0.00 0.00 59 1009.6
20260507171204 71 106 1.0 5.0 0.00 0.00 0.00 59 1009.6
20260507171104 71 122 1.0 6.0 0.00 0.00 0.00 59 1009.6
20260507171004 71 125 1.0 6.0 0.00 0.00 0.00 59 1009.5
20260507170904 71 182 1.0 6.0 0.00 0.00 0.00 59 1009.4
20260507170804 71 287 1.0 6.0 0.00 0.00 0.00 59 1009.4
20260507170703 71 98 1.0 6.0 0.00 0.00 0.00 59 1009.4
20260507170604 71 98 1.0 6.0 0.00 0.00 0.00 58 1009.4
20260507170504 71 99 1.0 6.0 0.00 0.00 0.00 58 1009.5
20260507170404 71 113 1.0 6.0 0.00 0.00 0.00 58 1009.5
20260507170303 71 129 1.0 6.0 0.00 0.00 0.00 58 1009.5
20260507170204 71 252 1.0 6.0 0.00 0.00 0.00 58 1009.4
20260507170104 71 45 1.0 5.0 0.00 0.00 0.00 58 1009.5
20260507170004 71 77 1.0 5.0 0.00 0.00 0.00 58 1009.4
20260507165903 71 100 1.0 4.0 0.00 0.00 0.00 58 1009.3
20260507165803 71 95 1.0 4.0 0.00 0.00 0.00 58 1009.3
20260507165704 71 92 1.0 4.0 0.00 0.00 0.00 58 1009.1
20260507165604 72 96 1.0 4.0 0.00 0.00 0.00 58 1009.0
20260507165504 72 94 1.0 4.0 0.00 0.00 0.00 58 1009.1
20260507165403 72 81 1.0 4.0 0.00 0.00 0.00 58 1009.0
20260507165306 72 105 1.0 6.0 0.00 0.00 0.00 58 1008.9
20260507165203 71 98 1.0 6.0 0.00 0.00 0.00 58 1008.9
20260507165103 71 102 1.0 6.0 0.00 0.00 0.00 58 1009.0
20260507165003 71 96 1.0 6.0 0.00 0.00 0.00 58 1008.9
20260507164903 71 100 1.0 6.0 0.00 0.00 0.00 57 1008.9
20260507164803 72 109 1.0 6.0 0.00 0.00 0.00 57 1008.9
20260507164703 72 105 1.0 6.0 0.00 0.00 0.00 57 1008.9
20260507164603 71 94 1.0 6.0 0.00 0.00 0.00 57 1009.0
20260507164503 72 96 1.0 6.0 0.00 0.00 0.00 57 1008.9
20260507164403 72 106 1.0 6.0 0.00 0.00 0.00 57 1009.0
20260507164303 72 102 1.0 4.0 0.00 0.00 0.00 57 1008.9
20260507164203 72 92 1.0 5.0 0.00 0.00 0.00 57 1008.9
20260507164103 72 103 1.0 5.0 0.00 0.00 0.00 57 1008.8
20260507164003 72 189 1.0 5.0 0.00 0.00 0.00 57 1008.9
20260507163903 72 156 1.0 5.0 0.00 0.00 0.00 57 1008.9
20260507163803 72 180 1.0 5.0 0.00 0.00 0.00 57 1008.8
20260507163703 72 218 1.0 5.0 0.00 0.00 0.00 57 1008.9
20260507163603 72 228 1.0 5.0 0.00 0.00 0.00 57 1008.9
20260507163503 72 234 1.0 6.0 0.00 0.00 0.00 56 1008.8
20260507163403 72 250 1.0 6.0 0.00 0.00 0.00 56 1008.8
20260507163303 72 251 1.0 6.0 0.00 0.00 0.00 56 1008.8
20260507163203 72 227 1.0 6.0 0.00 0.00 0.00 56 1008.9
20260507163103 72 214 1.0 6.0 0.00 0.00 0.00 56 1008.8
20260507163003 72 208 1.0 6.0 0.00 0.00 0.00 56 1008.8
20260507162903 72 266 1.0 6.0 0.00 0.00 0.00 56 1008.8
20260507162803 72 272 1.0 6.0 0.00 0.00 0.00 56 1008.8
20260507162703 72 277 1.0 6.0 0.00 0.00 0.00 56 1008.8
20260507162603 72 284 1.0 6.0 0.00 0.00 0.00 56 1008.8
20260507162503 72 295 1.0 6.0 0.00 0.00 0.00 56 1008.9
20260507162403 73 297 1.0 6.0 0.00 0.00 0.00 56 1008.9
20260507162306 73 298 1.0 4.0 0.00 0.00 0.00 56 1008.9
20260507162203 73 300 1.0 4.0 0.00 0.00 0.00 56 1008.8
20260507162103 73 303 1.0 6.0 0.00 0.00 0.00 55 1008.8
20260507162003 73 303 1.0 6.0 0.00 0.00 0.00 56 1008.7
20260507161903 73 334 1.0 6.0 0.00 0.00 0.00 55 1008.7
20260507161803 73 78 1.0 6.0 0.00 0.00 0.00 55 1008.7
20260507161703 73 95 1.0 6.0 0.00 0.00 0.00 55 1008.8
20260507161603 73 102 1.0 6.0 0.00 0.00 0.00 55 1008.8
20260507161503 73 103 1.0 6.0 0.00 0.00 0.00 55 1008.7
20260507161403 73 102 1.0 6.0 0.00 0.00 0.00 55 1008.7
20260507161303 73 102 1.0 6.0 0.00 0.00 0.00 55 1008.7
20260507161203 73 104 1.0 6.0 0.00 0.00 0.00 55 1008.8
20260507161103 73 108 1.0 6.0 0.00 0.00 0.00 55 1008.7
20260507161003 73 107 1.0 6.0 0.00 0.00 0.00 55 1008.8
20260507160903 73 110 1.0 4.0 0.00 0.00 0.00 55 1008.8
20260507160803 73 109 1.0 4.0 0.00 0.00 0.00 55 1008.7
20260507160703 73 106 1.0 4.0 0.00 0.00 0.00 55 1008.8
20260507160603 73 107 1.0 4.0 0.00 0.00 0.00 55 1008.8
20260507160503 73 107 1.0 4.0 0.00 0.00 0.00 55 1008.8
20260507160403 73 113 1.0 4.0 0.00 0.00 0.00 54 1008.8
20260507160303 73 114 1.0 4.0 0.00 0.00 0.00 54 1008.9
20260507160203 73 115 1.0 5.0 0.00 0.00 0.00 54 1008.8
20260507160003 73 110 1.0 5.0 0.00 0.00 0.00 54 1009.0
20260507155903 73 107 1.0 11.0 0.00 0.00 0.00 54 1008.9
20260507155803 73 106 1.0 11.0 0.00 0.00 0.00 54 1008.8
20260507155703 73 114 1.0 11.0 0.00 0.00 0.00 54 1008.9
20260507155603 73 122 1.0 11.0 0.00 0.00 0.00 54 1008.9
20260507155503 73 121 1.0 11.0 0.00 0.00 0.00 54 1008.9
20260507155403 73 111 1.0 11.0 0.00 0.00 0.00 54 1008.8
20260507155306 73 108 1.0 11.0 0.00 0.00 0.00 53 1008.9
20260507155203 74 108 1.0 11.0 0.00 0.00 0.00 53 1008.9
20260507155103 74 109 1.0 11.0 0.00 0.00 0.00 53 1008.9
20260507155003 74 106 1.0 11.0 0.00 0.00 0.00 53 1008.9
20260507154903 74 107 1.0 7.0 0.00 0.00 0.00 53 1008.9
20260507154803 74 109 1.0 7.0 0.00 0.00 0.00 53 1008.9
20260507154703 74 110 1.0 7.0 0.00 0.00 0.00 53 1008.9
20260507154603 74 110 1.0 7.0 0.00 0.00 0.00 53 1008.8
20260507154503 74 110 1.0 7.0 0.00 0.00 0.00 53 1008.7
20260507154403 74 112 1.0 7.0 0.00 0.00 0.00 53 1008.7
20260507154303 74 123 1.0 7.0 0.00 0.00 0.00 53 1008.5
20260507154203 74 119 1.0 7.0 0.00 0.00 0.00 53 1008.6
20260507154103 74 117 1.0 7.0 0.00 0.00 0.00 53 1008.7
20260507154003 74 119 1.0 7.0 0.00 0.00 0.00 53 1008.6
20260507153903 74 120 1.0 5.0 0.00 0.00 0.00 53 1008.6
20260507153803 74 122 1.0 5.0 0.00 0.00 0.00 52 1008.5
20260507153703 74 113 1.0 8.0 0.00 0.00 0.00 52 1008.5
20260507153603 74 110 1.0 8.0 0.00 0.00 0.00 52 1008.6
20260507153504 74 111 1.0 8.0 0.00 0.00 0.00 52 1008.5
20260507153403 74 110 1.0 8.0 0.00 0.00 0.00 52 1008.6
20260507153303 74 108 1.0 8.0 0.00 0.00 0.00 52 1008.6
20260507153203 74 104 1.0 8.0 0.00 0.00 0.00 52 1008.5
20260507153103 74 98 1.0 8.0 0.00 0.00 0.00 52 1008.6
20260507153003 74 89 1.0 8.0 0.00 0.00 0.00 51 1008.7
20260507152903 74 97 1.0 8.0 0.00 0.00 0.00 51 1008.6
20260507152803 74 97 1.0 8.0 0.00 0.00 0.00 51 1008.6
20260507152703 74 92 1.0 6.0 0.00 0.00 0.00 51 1008.6
20260507152603 74 89 1.0 6.0 0.00 0.00 0.00 51 1008.5
20260507152503 75 92 1.0 6.0 0.00 0.00 0.00 51 1008.6
20260507152403 75 95 1.0 6.0 0.00 0.00 0.00 51 1008.6
20260507152306 74 91 1.0 7.0 0.00 0.00 0.00 51 1008.6
20260507152203 75 85 1.0 7.0 0.00 0.00 0.00 51 1008.7
20260507152103 75 92 1.0 7.0 0.00 0.00 0.00 51 1008.6
20260507152003 75 97 1.0 7.0 0.00 0.00 0.00 51 1008.6
20260507151903 75 95 1.0 7.0 0.00 0.00 0.00 51 1008.7
20260507151804 75 99 1.0 7.0 0.00 0.00 0.00 50 1008.6
20260507151704 75 97 1.0 7.0 0.00 0.00 0.00 50 1008.7
20260507151604 75 100 1.0 7.0 0.00 0.00 0.00 50 1008.7
20260507151504 75 101 1.0 7.0 0.00 0.00 0.00 50 1008.6
20260507151404 75 103 1.0 7.0 0.00 0.00 0.00 50 1008.5
20260507151304 75 106 1.0 5.0 0.00 0.00 0.00 50 1008.6
20260507151204 75 112 1.0 5.0 0.00 0.00 0.00 50 1008.6
20260507151104 75 109 1.0 5.0 0.00 0.00 0.00 50 1008.6
20260507151004 75 104 1.0 5.0 0.00 0.00 0.00 50 1008.7
20260507150904 75 97 1.0 5.0 0.00 0.00 0.00 50 1008.5
20260507150804 75 94 1.0 5.0 0.00 0.00 0.00 50 1008.5
20260507150704 75 97 1.0 5.0 0.00 0.00 0.00 50 1008.6
20260507150604 75 94 1.0 4.0 0.00 0.00 0.00 50 1008.6
20260507150504 75 82 1.0 4.0 0.00 0.00 0.00 50 1008.5
20260507150404 75 88 1.0 5.0 0.00 0.00 0.00 50 1008.3
20260507150304 75 88 1.0 5.0 0.00 0.00 0.00 50 1008.4
20260507150204 75 87 1.0 5.0 0.00 0.00 0.00 50 1008.5
20260507150104 75 92 1.0 5.0 0.00 0.00 0.00 50 1008.5
20260507150004 75 97 1.0 5.0 0.00 0.00 0.00 49 1008.4
20260507145904 75 94 1.0 5.0 0.00 0.00 0.00 49 1008.5
20260507145804 75 101 1.0 5.0 0.00 0.00 0.00 49 1008.5
20260507145704 75 102 1.0 5.0 0.00 0.00 0.00 49 1008.5
20260507145604 75 104 1.0 5.0 0.00 0.00 0.00 49 1008.5
20260507145504 75 112 1.0 5.0 0.00 0.00 0.00 49 1008.5
20260507145404 75 110 1.0 7.0 0.00 0.00 0.00 49 1008.7
20260507145306 75 108 1.0 7.0 0.00 0.00 0.00 49 1008.6
20260507145204 75 107 1.0 7.0 0.00 0.00 0.00 49 1008.7
20260507145104 75 106 1.0 7.0 0.00 0.00 0.00 49 1008.7
20260507145004 75 104 1.0 7.0 0.00 0.00 0.00 49 1008.7
20260507144904 76 107 1.0 7.0 0.00 0.00 0.00 49 1008.8
20260507144804 76 105 1.0 7.0 0.00 0.00 0.00 49 1008.8
20260507144704 76 107 1.0 7.0 0.00 0.00 0.00 49 1008.8
20260507144604 76 106 1.0 7.0 0.00 0.00 0.00 48 1008.6
20260507144504 76 104 1.0 7.0 0.00 0.00 0.00 48 1008.6
20260507144404 76 107 1.0 9.0 0.00 0.00 0.00 48 1008.6
20260507144304 76 112 1.0 9.0 0.00 0.00 0.00 48 1008.5
20260507144204 76 113 1.0 9.0 0.00 0.00 0.00 48 1008.5
20260507144104 76 112 1.0 9.0 0.00 0.00 0.00 48 1008.6
20260507144004 76 113 1.0 9.0 0.00 0.00 0.00 48 1008.6
20260507143904 76 114 1.0 9.0 0.00 0.00 0.00 48 1008.7
20260507143803 76 116 1.0 9.0 0.00 0.00 0.00 48 1008.7
20260507143704 76 115 1.0 9.0 0.00 0.00 0.00 48 1008.7
20260507143604 76 118 1.0 9.0 0.00 0.00 0.00 48 1008.6
20260507143504 76 122 1.0 9.0 0.00 0.00 0.00 48 1008.6
20260507143403 76 116 1.0 7.0 0.00 0.00 0.00 48 1008.5
20260507143303 76 113 1.0 7.0 0.00 0.00 0.00 48 1008.7
20260507143203 76 115 1.0 7.0 0.00 0.00 0.00 48 1008.8
20260507143103 76 118 1.0 7.0 0.00 0.00 0.00 47 1008.8
20260507143004 76 119 1.0 7.0 0.00 0.00 0.00 47 1008.8
20260507142903 76 117 1.0 7.0 0.00 0.00 0.00 47 1008.8
20260507142803 76 119 1.0 5.0 0.00 0.00 0.00 47 1008.8
20260507142703 76 118 1.0 5.0 0.00 0.00 0.00 47 1008.8
20260507142603 76 116 1.0 5.0 0.00 0.00 0.00 47 1008.8
20260507142504 76 105 1.0 5.0 0.00 0.00 0.00 47 1008.8
20260507142403 76 108 1.0 5.0 0.00 0.00 0.00 47 1008.7
20260507142306 76 106 1.0 5.0 0.00 0.00 0.00 47 1008.7
20260507142203 76 102 1.0 5.0 0.00 0.00 0.00 47 1008.7
20260507142103 76 98 1.0 5.0 0.00 0.00 0.00 47 1008.8
20260507142003 76 100 1.0 5.0 0.00 0.00 0.00 47 1008.9
20260507141903 76 98 1.0 5.0 0.00 0.00 0.00 47 1008.9
20260507141803 76 96 1.0 5.0 0.00 0.00 0.00 47 1008.9
20260507141703 76 98 1.0 5.0 0.00 0.00 0.00 46 1008.9
20260507141603 76 95 1.0 5.0 0.00 0.00 0.00 46 1009.0
20260507141503 76 106 1.0 5.0 0.00 0.00 0.00 46 1009.1
20260507141403 76 102 1.0 5.0 0.00 0.00 0.00 46 1009.1
20260507141303 76 103 1.0 5.0 0.00 0.00 0.00 46 1009.1
20260507141203 76 103 1.0 5.0 0.00 0.00 0.00 46 1009.1
20260507141103 76 101 1.0 5.0 0.00 0.00 0.00 46 1009.2
20260507141003 76 102 1.0 6.0 0.00 0.00 0.00 46 1009.3
20260507140903 76 100 1.0 6.0 0.00 0.00 0.00 46 1009.3
20260507140803 76 99 2.0 6.0 0.00 0.00 0.00 46 1009.3
20260507140703 76 99 2.0 6.0 0.00 0.00 0.00 46 1009.3
20260507140603 76 99 1.0 6.0 0.00 0.00 0.00 46 1009.2
20260507140503 76 102 2.0 6.0 0.00 0.00 0.00 46 1009.3
20260507140403 76 103 1.0 6.0 0.00 0.00 0.00 45 1009.3
20260507140303 76 103 1.0 6.0 0.00 0.00 0.00 45 1009.2
20260507140203 76 103 1.0 6.0 0.00 0.00 0.00 45 1009.4
20260507140103 76 103 1.0 6.0 0.00 0.00 0.00 45 1009.3
20260507140003 76 104 1.0 6.0 0.00 0.00 0.00 45 1009.4
20260507135903 76 108 1.0 6.0 0.00 0.00 0.00 45 1009.4
20260507135804 76 108 1.0 6.0 0.00 0.00 0.00 45 1009.5
20260507135703 77 111 1.0 6.0 0.00 0.00 0.00 45 1009.5
20260507135603 77 107 1.0 6.0 0.00 0.00 0.00 45 1009.5
20260507135503 77 107 1.0 6.0 0.00 0.00 0.00 45 1009.6
20260507135403 77 103 1.0 6.0 0.00 0.00 0.00 45 1009.6
20260507135306 77 102 1.0 6.0 0.00 0.00 0.00 45 1009.6
20260507135203 77 105 1.0 6.0 0.00 0.00 0.00 45 1009.7
20260507135103 77 109 1.0 7.0 0.00 0.00 0.00 45 1009.6
20260507135003 77 109 1.0 7.0 0.00 0.00 0.00 45 1009.6
20260507134903 77 109 1.0 7.0 0.00 0.00 0.00 44 1009.7
20260507134803 77 109 1.0 7.0 0.00 0.00 0.00 44 1009.6
20260507134703 77 109 1.0 7.0 0.00 0.00 0.00 44 1009.6
20260507134603 77 114 1.0 7.0 0.00 0.00 0.00 44 1009.7
20260507134503 77 109 2.0 7.0 0.00 0.00 0.00 44 1009.7
20260507134403 77 112 2.0 7.0 0.00 0.00 0.00 44 1009.6
20260507134303 77 113 2.0 7.0 0.00 0.00 0.00 44 1009.6
20260507134203 77 114 1.0 7.0 0.00 0.00 0.00 44 1009.6
20260507134103 77 118 1.0 6.0 0.00 0.00 0.00 45 1009.6
20260507134003 77 118 1.0 6.0 0.00 0.00 0.00 45 1009.6
20260507133903 77 115 1.0 6.0 0.00 0.00 0.00 45 1009.7
20260507133803 77 115 1.0 6.0 0.00 0.00 0.00 44 1009.7
20260507133703 77 114 1.0 6.0 0.00 0.00 0.00 45 1009.7
20260507133603 77 116 2.0 6.0 0.00 0.00 0.00 44 1009.7
20260507133503 77 119 1.0 6.0 0.00 0.00 0.00 44 1009.7
20260507133403 77 119 1.0 6.0 0.00 0.00 0.00 44 1009.7
20260507133303 77 117 2.0 10.0 0.00 0.00 0.00 44 1009.7
20260507133203 77 117 2.0 10.0 0.00 0.00 0.00 44 1009.8
20260507133103 77 114 2.0 10.0 0.00 0.00 0.00 44 1009.7
20260507133003 77 114 2.0 10.0 0.00 0.00 0.00 43 1009.7
20260507132903 77 115 2.0 10.0 0.00 0.00 0.00 43 1009.8
20260507132803 77 115 2.0 10.0 0.00 0.00 0.00 43 1009.7
20260507132703 77 116 2.0 10.0 0.00 0.00 0.00 43 1009.8
20260507132603 77 115 2.0 10.0 0.00 0.00 0.00 43 1009.9
20260507132503 77 112 2.0 10.0 0.00 0.00 0.00 43 1010.0
20260507132403 77 111 2.0 10.0 0.00 0.00 0.00 43 1009.9
20260507132307 78 110 2.0 8.0 0.00 0.00 0.00 43 1010.0
20260507132203 77 109 2.0 8.0 0.00 0.00 0.00 43 1009.9
20260507132103 78 108 2.0 8.0 0.00 0.00 0.00 43 1009.9
20260507132003 78 105 2.0 8.0 0.00 0.00 0.00 43 1009.9
20260507131903 78 105 3.0 8.0 0.00 0.00 0.00 43 1009.9
20260507131803 78 106 2.0 8.0 0.00 0.00 0.00 43 1009.9
20260507131703 78 106 3.0 9.0 0.00 0.00 0.00 43 1010.0
20260507131603 77 105 3.0 9.0 0.00 0.00 0.00 43 1009.9
20260507131503 78 105 3.0 9.0 0.00 0.00 0.00 43 1010.1
20260507131403 78 105 3.0 9.0 0.00 0.00 0.00 43 1010.0
20260507131303 78 107 3.0 9.0 0.00 0.00 0.00 42 1010.0
20260507131203 78 107 3.0 9.0 0.00 0.00 0.00 42 1009.9
20260507131103 78 106 3.0 9.0 0.00 0.00 0.00 42 1009.9
20260507131003 78 106 3.0 9.0 0.00 0.00 0.00 42 1010.0